ECMWFFLT1_925_thetae_000.txt.gz
Theta_e
314 313 313 312 312 312 312 313 313 314 314 314 315 315 316 316 317 318 319 319 320 322 323 325 327 327 328 330 331 331 331 330 328 326 327 328 328 327 324 324 326 328 328 328 328 328 327 327 327 326 326 325 324 325 325 326 325 324 323 323 322 322 321
313 312 312 312 312 311 312 312 312 313 313 314 314 314 315 316 316 317 317 318 319 320 321 322 325 326 328 328 329 330 330 330 329 327 326 328 328 327 327 326 327 328 327 327 327 328 327 326 326 326 326 326 325 326 326 326 326 325 325 325 323 322 322
312 312 312 312 311 311 311 311 311 312 313 313 313 313 314 314 315 316 316 317 318 319 319 321 322 324 326 327 327 328 329 330 329 328 326 326 327 328 328 327 328 328 328 328 328 327 327 326 325 326 327 327 327 327 326 326 327 326 326 326 325 324 324
312 312 312 312 311 310 310 310 310 311 312 312 312 312 313 313 314 315 316 316 317 317 318 319 321 322 324 326 327 327 328 329 328 328 327 326 326 327 327 327 327 328 328 328 329 328 327 328 326 326 326 326 327 328 327 326 327 326 326 327 326 325 326
311 311 311 311 311 310 310 309 310 310 310 311 312 311 312 312 312 313 314 315 316 316 317 318 319 321 323 325 327 327 328 329 329 328 327 326 325 325 326 326 326 327 327 327 329 329 328 328 328 327 326 325 326 326 326 326 326 326 326 326 326 325 326
310 310 310 310 310 310 309 309 309 309 309 310 310 311 311 311 311 312 313 314 315 316 316 317 318 319 321 323 324 326 328 328 329 328 328 327 326 325 324 325 326 326 326 327 328 329 329 329 328 327 326 325 325 324 324 326 326 326 326 326 326 325 326
309 309 309 309 309 309 309 308 308 308 308 308 309 309 309 310 310 311 311 312 313 314 315 316 317 318 319 321 322 324 326 327 328 328 328 328 327 325 324 324 325 325 326 327 328 328 328 329 328 327 328 325 325 325 324 326 325 325 326 326 326 326 327
309 308 308 308 308 309 308 308 308 307 307 307 307 307 307 308 308 309 310 310 311 312 313 314 316 317 318 319 320 322 324 326 326 327 328 328 328 327 325 324 325 326 326 327 328 328 328 329 328 328 328 326 325 325 325 325 325 325 325 326 326 327 327
308 308 307 307 307 307 307 307 307 307 307 307 307 307 306 306 307 307 308 309 310 311 312 313 315 316 317 318 319 320 321 324 325 326 328 327 327 328 327 325 325 326 327 326 327 329 329 329 329 328 328 327 326 325 324 325 325 324 324 324 325 326 326
307 307 307 307 307 306 306 306 307 307 307 307 307 306 306 306 306 306 307 308 308 310 311 312 313 314 316 317 318 319 320 322 323 325 327 328 328 328 328 327 326 326 326 326 327 327 328 329 329 329 327 327 327 325 324 325 324 325 325 324 324 323 323
307 307 307 306 306 306 306 306 306 307 307 307 306 306 305 305 305 306 306 306 307 307 308 310 311 313 315 316 317 319 319 320 321 323 326 327 327 328 329 328 328 327 326 326 326 327 328 328 329 329 328 327 326 326 325 325 324 326 325 325 325 323 321
307 307 306 306 306 306 306 306 306 306 306 306 306 305 305 305 305 305 305 305 306 306 307 308 310 311 313 315 316 318 319 319 320 321 323 325 326 327 328 328 328 328 328 327 327 327 327 328 328 328 329 328 326 326 327 325 325 325 325 326 325 322 321
307 307 306 306 306 305 305 305 305 305 305 304 304 304 304 304 304 304 304 304 305 305 306 307 308 310 311 313 315 317 318 319 319 319 320 323 325 326 327 328 329 329 328 329 328 327 327 328 328 329 329 328 327 326 326 325 325 325 326 327 325 323 321
307 307 306 306 305 305 304 304 304 304 304 304 303 304 304 303 303 303 304 304 304 304 305 305 307 308 310 312 314 315 317 318 319 319 319 320 322 324 325 327 328 328 328 329 329 328 328 328 328 329 329 329 327 326 326 326 326 325 327 327 325 323 320
307 306 306 306 305 304 304 304 304 303 303 303 302 302 303 303 302 302 303 303 303 304 304 305 305 306 308 309 311 313 316 317 318 319 319 319 319 321 323 326 326 326 327 328 330 330 329 328 328 329 328 328 328 327 326 326 325 326 328 328 325 321 319
306 306 306 305 305 304 304 304 304 303 303 302 302 302 302 302 302 302 302 302 303 303 303 304 304 305 306 307 308 310 313 315 317 318 319 319 320 320 321 323 326 326 327 328 330 330 330 329 329 328 328 329 329 328 327 326 324 325 329 327 324 320 318
306 306 305 305 305 304 304 304 304 303 303 303 302 302 302 301 301 301 301 302 302 302 302 303 303 304 305 305 306 308 310 312 315 316 318 319 320 320 320 321 324 325 326 328 329 329 329 331 330 329 329 328 328 328 327 326 325 324 328 327 323 320 317
306 305 305 305 304 304 304 304 303 303 303 303 302 302 302 301 301 301 301 301 301 301 301 302 302 303 303 304 305 306 308 310 312 314 316 317 319 320 320 321 322 323 325 328 329 328 329 330 329 329 329 328 328 329 328 327 326 325 327 327 323 319 317
305 304 304 304 304 303 303 303 303 303 304 303 303 302 302 301 301 301 300 300 300 300 300 301 301 301 302 303 303 305 306 308 310 312 315 316 317 319 320 321 321 322 323 326 328 328 328 328 329 329 330 329 328 328 329 328 327 326 327 326 322 318 317
304 304 303 303 303 303 303 303 303 303 303 303 303 302 301 301 301 300 300 300 300 300 300 300 300 300 301 302 303 304 305 306 309 311 313 315 317 318 319 320 321 321 322 325 327 328 327 327 329 330 331 329 327 329 330 329 327 326 326 325 321 319 317
303 303 302 302 303 303 303 303 303 302 302 302 302 301 301 300 300 300 300 300 299 299 299 299 300 300 300 301 302 303 304 305 307 309 312 314 316 317 318 319 320 321 321 323 327 328 327 328 330 331 331 329 328 330 331 330 329 327 326 324 322 320 317
303 302 302 302 302 302 302 302 302 302 302 301 301 301 300 300 300 299 299 299 299 299 299 299 300 300 300 301 302 303 303 304 306 308 311 314 316 317 318 319 320 321 321 322 325 327 327 328 329 331 331 329 329 330 331 330 329 328 326 324 322 320 317
303 302 303 302 302 302 302 301 301 301 301 301 301 301 300 300 300 299 299 299 299 299 299 299 299 299 299 300 301 302 304 305 305 307 310 313 315 316 318 319 319 320 321 321 322 325 327 327 328 330 331 329 328 329 330 330 329 328 326 324 321 319 317
303 303 302 302 302 301 301 301 301 301 301 301 301 300 300 300 300 299 299 298 298 298 298 298 299 299 299 299 300 301 302 304 305 307 309 312 314 316 317 319 319 320 321 320 320 322 326 327 328 328 328 328 328 329 330 330 329 328 327 325 321 319 318
303 302 302 302 301 301 301 301 301 301 301 300 300 300 300 299 299 299 299 298 298 298 298 298 298 298 298 298 299 299 300 302 304 306 309 311 314 316 317 318 319 320 321 321 321 321 325 328 328 328 328 328 328 328 329 330 329 328 327 325 322 320 320
302 302 302 301 301 300 300 300 300 300 300 299 299 299 299 298 298 298 298 298 298 298 298 298 298 298 298 298 298 298 299 300 302 305 307 310 313 316 317 318 319 320 321 321 321 321 324 327 329 329 328 327 327 327 328 329 328 327 326 324 322 320 320
302 301 301 300 300 300 300 299 299 299 299 298 298 298 297 297 297 297 297 297 297 297 298 298 298 298 298 298 298 298 298 299 300 302 305 308 311 315 317 318 318 320 321 321 321 321 323 326 327 329 327 326 327 326 327 328 328 327 326 325 323 322 321
301 301 300 300 299 299 299 298 298 298 297 297 297 296 296 296 296 296 296 296 297 297 297 297 297 297 297 298 298 298 298 299 300 301 304 306 309 312 315 318 318 319 321 321 321 322 323 324 325 326 325 324 325 326 326 326 327 326 325 324 324 323 321
301 300 300 299 299 299 299 298 298 297 297 296 296 296 295 295 295 295 296 296 296 296 297 297 297 297 297 298 298 298 298 298 300 301 303 306 307 309 313 317 319 319 321 321 321 322 322 323 324 324 322 320 321 323 323 323 324 324 322 321 322 322 321
300 300 299 299 299 299 298 298 297 297 296 296 296 295 295 295 295 295 295 296 296 296 297 297 297 297 297 297 298 298 298 299 300 301 303 305 307 308 311 315 318 319 320 321 321 321 322 323 323 323 321 318 317 318 318 317 318 319 319 319 320 320 320
300 300 299 299 299 298 298 298 297 297 296 296 296 295 295 295 295 295 295 295 295 296 296 297 297 297 297 297 298 298 299 300 300 302 303 304 306 308 310 313 317 319 320 321 321 321 323 323 322 322 319 316 315 314 312 311 313 313 314 315 316 315 315
300 300 299 299 298 298 298 297 297 296 296 296 295 295 295 294 294 294 294 295 295 295 296 296 297 297 297 298 298 298 299 300 301 302 304 305 307 308 310 312 315 318 319 320 320 321 322 322 321 321 319 315 313 311 309 309 310 310 310 311 311 310 309
300 299 299 298 298 298 297 297 296 296 296 295 295 294 294 294 294 294 294 295 295 295 296 297 298 298 298 298 298 298 299 301 302 303 305 306 308 309 311 313 316 318 318 319 320 321 321 321 320 320 318 316 313 311 308 307 307 308 309 308 307 305 304
300 299 298 298 298 297 297 296 296 296 295 294 294 294 293 293 293 294 294 295 295 295 295 296 298 299 299 298 298 298 299 301 303 304 305 307 309 310 312 314 317 318 318 319 320 320 320 320 320 319 318 317 316 314 309 305 304 306 306 304 302 301 299
299 298 298 298 297 297 296 296 295 295 294 294 293 293 292 293 293 293 294 294 294 295 295 296 296 298 299 300 300 299 299 301 304 306 307 309 310 311 313 315 316 317 318 319 319 320 320 319 318 317 316 316 316 313 308 305 304 303 302 301 298 297 297
298 298 297 297 297 297 296 295 294 294 294 293 293 292 292 292 293 293 294 294 294 294 294 295 295 296 298 300 301 302 301 302 304 307 308 310 312 312 313 314 314 316 318 319 318 318 318 318 316 315 315 315 314 310 306 303 302 301 299 298 296 295 295
297 297 297 297 296 296 295 295 294 294 293 293 292 292 292 292 292 293 293 294 294 294 294 295 295 296 298 300 302 304 304 305 306 307 308 311 312 313 313 313 313 315 316 317 317 316 315 315 314 313 313 312 310 307 305 302 300 299 297 296 295 294 293

ECMWFFLT1_925_thetae_003.txt.gz
Theta_e
317 318 317 317 316 316 316 317 317 317 316 316 316 317 317 318 318 319 319 320 321 321 322 324 325 327 328 329 330 329 328 330 332 332 332 332 332 332 331 330 329 328 326 327 328 328 329 329 330 330 329 328 328 327 327 326 326 325 325 324 324 325 326
316 317 316 315 316 316 316 317 316 317 317 316 316 316 316 317 317 318 318 319 319 320 320 321 323 324 327 328 330 330 329 329 330 330 331 332 332 333 332 329 329 329 327 325 327 328 328 329 329 330 330 329 328 327 326 325 326 325 325 325 324 324 325
316 316 316 316 316 316 316 316 316 316 316 316 316 316 315 315 316 317 317 318 319 319 319 320 321 322 324 326 327 329 330 331 332 331 331 331 331 331 331 330 329 329 328 327 328 328 328 328 327 329 330 329 328 327 326 326 326 326 325 325 325 324 324
317 317 317 317 316 315 315 316 315 315 315 315 316 316 315 315 315 315 316 317 318 319 319 319 320 321 322 324 326 327 328 331 333 333 332 331 331 330 330 330 328 327 328 329 329 329 330 331 329 329 328 328 329 328 328 327 326 326 326 325 325 324 324
317 317 317 317 316 316 315 315 314 314 314 314 315 315 315 315 315 315 315 316 317 318 318 319 319 320 321 322 324 325 327 328 331 332 332 331 330 329 330 330 328 327 327 328 329 329 330 331 331 332 329 326 327 329 328 328 328 326 326 325 325 325 324
316 317 317 316 316 315 315 315 314 314 314 314 314 314 314 315 315 314 315 315 315 316 317 318 319 320 320 321 322 323 325 326 328 330 331 331 330 329 329 329 329 328 327 327 328 327 328 329 330 331 331 329 328 327 327 328 328 327 326 326 325 324 324
316 316 315 315 316 315 314 314 314 313 313 313 313 313 313 313 313 314 314 314 314 314 315 315 316 317 318 319 320 321 323 324 326 328 330 331 331 330 329 329 329 329 328 328 328 327 327 328 329 330 331 330 329 328 326 327 328 327 326 325 325 324 323
314 315 314 313 314 314 314 314 313 313 313 313 312 312 312 312 312 312 312 312 313 313 313 314 314 315 316 318 319 320 321 322 324 326 329 331 331 330 329 329 329 328 328 327 328 327 326 327 328 329 330 331 330 329 327 326 328 327 326 324 325 324 324
313 313 313 312 313 313 314 313 313 313 313 312 312 312 312 311 311 311 311 311 311 311 312 313 313 314 315 316 318 319 320 321 322 324 325 328 330 331 330 329 329 328 328 328 327 327 326 326 327 328 329 330 330 330 328 326 327 326 325 324 325 324 325
312 312 312 313 313 313 312 312 312 312 312 312 312 312 312 311 311 310 310 310 310 310 310 311 312 313 314 315 316 318 319 320 321 322 323 325 327 329 330 330 329 329 328 328 328 328 327 326 327 328 328 329 329 329 329 327 325 325 325 324 324 325 327
312 312 312 312 313 312 312 312 312 311 311 312 312 311 311 311 310 309 309 308 308 309 309 309 310 311 312 313 314 316 317 319 320 321 322 323 324 326 328 329 329 329 328 329 329 328 327 327 327 328 329 328 329 329 329 329 327 326 325 325 325 325 327
312 312 312 311 312 311 311 311 311 311 311 310 310 310 309 309 309 308 308 307 307 307 308 308 309 310 311 312 313 314 316 318 319 320 321 322 323 324 326 327 328 329 328 328 329 328 328 328 328 328 329 329 329 329 329 330 329 328 325 325 326 326 326
312 312 312 311 311 311 311 310 310 310 309 309 308 308 308 308 308 307 307 307 306 306 307 307 308 308 309 310 311 313 314 316 318 319 320 321 322 323 324 326 327 328 329 328 328 328 329 329 329 328 328 329 330 329 329 329 330 329 326 325 326 325 325
312 311 311 311 311 310 310 310 309 308 308 308 307 307 306 306 306 306 306 306 306 306 306 306 307 307 308 308 310 311 313 314 315 317 319 320 321 322 322 323 325 327 328 327 328 329 329 330 329 328 328 329 330 331 330 329 329 329 328 326 327 325 325
312 311 311 311 310 310 310 309 309 308 307 307 306 306 305 305 305 305 305 305 305 305 305 305 306 306 307 307 308 309 311 312 314 316 318 319 320 321 321 322 322 324 326 326 328 329 329 329 330 329 329 329 329 329 329 329 329 329 328 327 327 326 324
311 311 311 311 310 310 309 309 308 308 307 307 306 306 305 305 305 305 304 304 305 305 305 305 305 306 306 307 307 308 309 310 312 313 315 317 319 320 321 321 321 322 324 325 327 328 329 328 329 329 329 329 329 327 327 329 330 329 328 327 326 325 324
311 311 311 310 310 310 309 309 308 307 307 306 306 305 305 305 305 304 304 304 304 304 304 305 305 305 305 306 306 307 307 309 310 311 313 314 316 318 320 321 321 321 322 323 325 327 328 329 329 329 329 330 330 327 327 328 329 329 329 328 326 324 323
310 311 310 310 310 309 309 308 308 307 306 306 306 305 305 305 305 305 305 304 304 304 304 304 304 304 305 305 306 306 306 307 308 310 311 312 314 316 318 320 321 321 321 322 323 324 327 329 328 329 329 329 331 330 329 329 329 329 328 329 327 324 323
310 310 310 310 309 308 308 307 307 306 306 305 305 305 305 305 305 305 305 304 304 304 304 304 304 304 304 304 305 305 306 306 307 308 309 311 312 313 315 317 319 321 321 322 322 322 324 326 327 329 330 329 329 329 330 330 329 328 328 329 327 324 323
310 310 309 308 308 307 307 306 306 306 305 305 305 304 305 305 305 305 305 304 304 304 304 303 303 303 303 303 303 304 305 305 306 307 308 309 310 312 314 315 317 319 320 321 322 322 323 324 326 329 330 329 327 328 330 331 329 329 328 328 327 325 324
309 309 308 307 307 306 306 305 305 304 304 304 304 304 304 304 304 304 304 304 304 303 303 303 303 303 303 303 303 303 304 304 304 305 306 307 309 311 312 314 316 317 319 320 321 322 322 323 325 327 330 330 329 329 330 330 330 329 328 327 327 325 322
308 308 307 307 306 306 305 304 304 304 303 304 304 304 304 304 304 304 303 303 303 303 303 303 303 302 303 303 303 303 303 304 304 304 305 306 307 309 311 313 315 316 317 318 320 321 322 322 323 325 328 331 332 330 330 330 331 329 328 328 327 324 320
307 307 307 306 306 305 304 304 303 303 303 303 303 304 303 304 304 303 303 303 303 303 303 303 302 302 302 302 302 303 303 303 304 304 305 305 306 308 309 311 313 315 316 317 318 319 320 321 322 323 325 329 331 331 330 330 331 330 328 327 326 323 320
307 306 306 305 305 304 303 303 303 303 303 303 303 303 303 303 303 303 303 303 303 302 302 302 302 302 301 301 301 301 302 302 303 304 304 305 306 307 308 310 312 314 315 316 318 318 318 319 320 321 322 325 329 330 329 329 330 330 329 327 326 323 320
306 306 305 304 304 303 303 303 302 302 302 302 302 301 302 302 302 302 302 302 302 302 302 302 302 301 301 300 300 300 300 300 301 302 303 304 305 307 308 309 310 313 315 316 317 318 318 318 319 320 320 322 326 328 328 329 331 330 328 327 327 324 321
306 305 305 304 303 303 302 302 302 301 301 301 301 300 301 300 300 300 301 300 301 301 301 301 301 301 300 300 300 299 299 299 300 300 301 302 303 306 307 308 310 312 314 316 317 318 319 319 319 320 319 321 324 327 327 329 331 329 327 328 327 325 323
305 304 304 303 303 302 302 301 301 301 301 300 300 300 300 299 299 299 299 299 299 299 300 300 300 300 300 299 299 299 299 299 299 299 300 300 301 303 305 307 310 311 313 316 317 318 319 320 321 322 321 320 323 326 326 327 329 328 328 328 328 326 323
304 304 303 302 302 302 301 301 301 301 300 300 300 299 299 299 299 298 298 298 298 298 298 299 299 299 299 298 298 298 298 298 298 299 299 299 300 301 303 305 308 310 313 315 317 318 319 320 321 323 323 321 321 325 326 326 328 328 327 328 327 325 323
304 303 303 302 302 301 301 301 300 300 300 299 299 299 299 299 299 298 298 298 298 298 298 298 297 298 298 298 298 297 297 298 298 298 299 299 299 300 301 303 305 308 311 314 316 318 319 320 321 321 324 324 324 325 326 326 327 328 327 327 327 325 323
303 303 302 302 301 301 301 300 300 300 299 299 299 299 299 299 298 298 298 298 298 298 297 297 297 297 297 297 297 297 297 297 298 298 298 299 299 299 300 301 303 305 309 312 314 317 318 319 321 321 322 325 326 326 326 326 326 327 327 327 326 325 324
303 302 302 301 301 301 300 300 299 299 299 299 298 298 298 298 298 297 297 297 297 297 297 297 296 296 296 296 296 296 297 297 297 298 298 299 299 299 300 300 301 303 307 310 313 316 318 319 320 321 321 323 325 324 323 323 323 324 325 324 324 324 324
302 302 302 301 301 300 300 299 299 299 298 298 298 298 297 297 297 297 296 296 296 296 296 296 296 296 296 295 296 296 296 297 297 298 298 299 299 299 300 301 301 302 304 307 311 314 316 318 319 321 321 323 323 321 320 320 321 321 321 321 322 322 322
302 302 301 301 300 300 299 299 299 298 298 297 297 297 297 296 296 296 296 295 295 295 295 295 295 296 296 296 296 296 296 296 297 297 298 299 299 300 300 301 302 302 303 305 307 311 314 316 318 320 321 323 323 319 317 318 319 319 320 320 319 318 317
302 302 301 300 299 299 299 298 298 298 297 297 297 296 296 296 295 295 295 294 294 294 295 295 295 295 296 296 296 296 296 296 297 297 298 299 299 300 301 301 303 303 304 305 306 307 310 313 315 317 320 323 322 319 317 316 317 318 318 317 315 313 313
301 301 300 300 299 298 298 298 298 297 296 296 296 295 295 295 295 294 294 294 294 294 295 295 295 295 296 296 295 295 295 296 296 297 298 299 299 300 301 302 303 304 305 306 307 307 309 310 312 315 319 322 321 318 317 316 315 314 314 313 311 309 309
301 300 300 299 299 298 298 298 297 297 296 296 295 294 294 294 294 293 293 293 293 294 294 295 295 295 295 295 295 295 295 295 295 297 298 299 300 300 302 303 304 305 307 307 308 309 309 310 311 314 318 321 320 317 316 314 312 312 310 309 307 306 305
300 300 299 299 298 298 298 297 297 296 296 295 295 294 294 293 293 293 293 293 293 293 293 294 295 295 295 295 295 295 295 295 295 296 298 299 299 300 302 304 304 306 308 310 310 311 311 311 313 316 319 320 318 315 313 311 310 309 307 305 304 303 301

ECMWFFLT1_925_thetae_006.txt.gz
Theta_e
317 316 316 318 316 317 318 317 318 318 317 317 317 317 318 318 318 319 319 320 320 320 321 321 322 323 324 325 327 328 329 329 330 332 333 333 332 331 330 330 330 330 331 331 330 329 330 333 332 329 329 328 327 328 327 327 327 327 327 326 327 327 326
317 316 317 317 316 316 318 318 317 317 317 316 316 317 317 317 318 318 318 319 319 319 320 320 320 321 322 322 324 326 328 330 330 330 332 332 332 331 330 330 330 331 330 331 331 329 327 330 332 331 331 330 329 328 328 328 327 326 327 326 326 326 326
316 316 316 316 317 317 317 318 317 317 317 317 316 316 316 316 316 317 317 317 318 319 319 319 319 319 320 321 322 323 325 327 329 330 330 330 331 332 331 331 331 332 332 331 331 330 327 329 332 331 331 332 332 330 329 328 328 327 327 326 326 326 325
316 316 316 316 317 317 317 318 317 316 316 316 317 316 316 316 316 316 316 316 317 317 318 319 319 319 320 320 321 321 322 324 326 329 330 330 331 331 331 331 332 333 332 332 330 329 329 332 334 333 331 331 332 330 330 329 328 327 327 326 326 326 325
316 316 317 317 317 317 317 317 316 316 315 315 316 316 316 316 316 315 315 315 315 316 317 318 318 319 320 320 321 321 322 323 324 326 328 330 331 331 331 331 332 333 332 332 331 329 329 331 333 334 332 331 331 330 329 329 329 328 327 326 325 326 325
317 316 317 317 317 317 316 316 316 315 315 315 315 315 315 316 315 315 315 316 316 316 316 316 317 317 318 318 319 320 321 322 323 324 325 327 329 331 331 331 332 333 332 332 331 329 329 330 332 332 331 330 331 330 328 329 329 328 327 326 326 326 325
317 317 317 317 317 317 315 316 315 314 314 314 314 314 314 314 314 314 314 314 314 314 314 314 315 315 316 316 317 318 319 320 321 322 323 324 326 328 330 331 332 332 332 332 331 330 329 329 330 331 330 330 330 329 329 328 329 329 328 327 326 326 325
316 316 316 315 316 316 315 315 315 314 314 313 313 314 313 314 313 313 313 313 312 312 312 312 313 314 315 315 316 317 317 318 319 320 321 322 324 326 328 330 331 331 331 331 331 330 329 329 328 328 329 330 331 331 331 330 328 328 328 328 327 326 325
315 315 315 314 315 316 315 315 314 314 314 314 314 313 313 314 313 313 313 312 312 312 312 312 312 313 313 314 315 315 316 317 318 319 320 321 322 324 326 328 329 329 330 330 330 330 330 329 328 327 328 329 330 332 333 332 331 329 328 327 327 326 325
315 315 314 314 314 315 315 314 313 314 313 313 313 313 313 313 313 313 312 312 311 311 311 311 311 311 311 312 313 314 315 316 317 318 319 320 321 322 324 326 328 328 329 329 330 330 330 330 329 328 328 328 329 330 332 333 333 330 328 327 327 326 325
314 314 313 314 314 314 313 312 312 313 313 312 313 313 313 312 312 312 311 311 310 309 309 309 309 309 310 310 311 311 313 314 315 316 317 318 320 321 322 324 326 328 328 329 329 329 329 330 330 329 328 328 328 329 329 331 332 329 327 328 327 326 325
314 313 313 314 314 314 313 313 313 313 312 312 312 311 311 311 310 310 310 310 309 309 308 308 308 308 308 309 309 310 311 312 313 314 315 317 318 320 321 322 324 326 327 328 329 329 329 329 330 329 329 328 328 328 328 329 331 329 327 328 328 326 327
314 313 313 313 313 313 313 313 313 312 312 311 310 310 310 310 309 309 308 308 308 308 308 307 307 307 307 308 308 309 309 310 311 313 314 316 317 319 320 321 322 324 325 327 328 329 329 329 329 329 329 329 328 328 328 328 329 329 327 328 329 327 327
313 313 313 313 312 312 312 312 312 311 311 310 310 309 309 309 308 307 307 307 307 307 307 307 307 306 307 307 307 308 308 308 309 311 312 314 315 317 318 320 321 322 323 325 326 328 328 328 329 329 329 329 328 329 329 328 329 329 327 327 328 328 327
314 313 313 313 312 312 312 312 311 311 310 310 309 309 308 308 307 307 307 306 306 306 306 306 306 306 306 306 307 307 307 308 308 309 310 312 314 315 316 318 320 321 322 323 325 327 328 328 328 328 329 329 329 329 329 329 329 328 328 327 328 328 327
313 313 313 313 313 312 312 312 311 311 310 310 309 309 308 308 307 307 307 306 306 306 305 305 305 305 306 306 306 306 306 307 308 308 309 310 312 313 315 316 317 319 321 322 323 325 327 327 328 328 329 329 329 329 329 330 329 329 328 328 328 328 327
314 313 313 313 313 312 312 311 311 311 310 310 309 309 308 307 307 307 306 306 306 306 305 305 305 305 305 305 306 306 306 306 307 307 308 308 310 311 313 314 315 317 319 320 322 323 325 327 327 328 328 328 328 328 328 329 329 329 329 328 328 329 327
314 313 313 313 312 312 312 311 311 311 310 309 309 308 307 307 306 306 306 306 306 305 305 305 305 305 305 305 305 305 306 306 306 307 307 307 308 309 311 313 314 315 316 318 320 321 322 324 326 327 328 327 327 327 327 329 329 329 329 328 328 328 327
313 313 312 312 312 311 311 311 310 310 309 308 308 307 307 306 306 306 305 306 305 306 306 305 305 305 305 305 305 305 305 305 305 306 306 307 307 308 309 311 312 314 315 316 318 319 321 322 324 325 326 327 327 326 327 329 329 328 328 328 327 328 326
313 312 312 312 312 311 311 310 309 308 308 307 307 306 306 305 305 305 305 305 305 305 305 306 306 305 305 305 305 305 305 305 305 305 305 306 306 307 307 309 310 312 313 315 316 318 319 320 322 323 324 326 327 327 327 328 328 328 328 327 327 327 325
312 312 312 311 311 310 309 308 308 307 307 306 305 305 305 305 304 304 305 305 305 305 305 305 305 305 305 304 305 305 305 304 304 304 305 305 305 306 306 307 308 309 311 313 314 316 318 319 320 322 322 324 326 327 328 328 327 327 328 327 327 327 325
312 311 311 310 309 309 308 307 307 306 305 305 304 304 304 304 304 304 304 304 304 304 304 305 304 304 304 304 304 304 304 304 304 304 304 305 305 305 305 306 306 307 308 310 312 314 315 317 318 320 321 322 323 325 327 327 326 325 326 327 327 327 325
311 310 310 309 308 308 307 306 306 305 305 304 304 304 303 303 303 303 303 303 303 304 304 304 304 304 304 304 304 304 304 303 304 304 304 304 304 305 305 305 305 306 307 308 309 310 312 314 316 317 318 319 319 320 322 325 327 327 327 328 328 327 325
310 310 309 308 308 307 306 306 305 305 304 304 303 303 303 302 302 302 302 302 302 302 303 303 303 303 303 303 303 303 303 302 303 303 302 303 303 304 304 305 305 305 306 306 307 309 310 312 313 315 316 317 318 318 318 320 323 326 327 328 327 327 326
309 308 308 308 307 306 305 305 304 304 304 303 303 302 302 301 301 301 301 301 301 301 302 302 302 302 302 302 302 302 302 302 302 302 302 302 301 302 302 303 304 305 306 306 307 308 309 311 312 313 314 315 316 317 317 317 318 321 325 327 327 326 326
308 308 308 307 306 305 305 304 304 303 303 302 302 302 301 301 301 301 301 300 300 300 300 300 300 300 300 300 300 300 300 300 300 301 301 301 301 301 301 301 302 303 304 305 307 308 309 310 311 313 314 315 315 316 317 317 317 318 320 324 327 327 325
308 307 307 306 305 305 304 304 303 303 302 302 302 301 301 301 300 300 300 300 300 300 300 299 299 299 299 299 299 299 299 298 299 299 300 300 300 300 300 300 301 301 302 303 305 307 309 310 311 313 315 316 316 315 316 317 317 317 317 320 324 326 325
307 307 306 305 305 304 304 303 303 302 302 302 301 301 300 300 300 300 300 300 300 300 299 299 299 299 299 299 298 298 298 298 298 298 298 299 299 300 300 300 300 300 300 301 302 305 307 309 311 313 315 317 318 317 317 317 317 317 316 317 321 325 326
306 306 305 305 304 304 304 303 303 302 302 301 300 300 300 300 300 299 299 299 299 299 299 299 299 298 298 298 298 297 297 297 297 298 298 298 298 299 299 299 299 300 300 300 301 302 304 306 308 310 313 316 318 319 319 319 318 318 318 318 319 323 326
306 305 305 305 304 304 303 303 302 301 301 300 300 300 299 299 299 299 299 299 299 299 298 298 298 297 297 297 296 296 296 297 297 297 297 297 298 298 298 298 299 299 299 300 300 300 301 303 304 306 308 311 315 318 320 321 321 320 320 320 319 320 325
305 305 304 304 303 303 302 302 301 301 300 300 299 299 299 299 298 298 298 298 298 298 297 297 297 296 296 296 296 295 296 296 296 296 297 297 297 297 298 298 298 299 299 299 300 300 301 301 303 304 306 309 312 315 319 321 322 322 322 322 321 321 324
304 304 304 303 303 302 302 301 301 300 299 299 299 298 298 298 298 297 297 297 297 296 296 296 296 296 296 295 295 295 295 295 295 296 296 296 296 297 297 297 298 298 299 299 299 300 300 301 302 303 305 308 311 314 317 320 322 323 323 323 323 324 325
304 303 303 303 302 302 301 300 300 299 299 299 298 298 298 297 297 297 296 296 296 295 295 295 295 295 295 294 294 294 294 295 295 295 296 296 296 296 297 297 298 298 298 298 299 299 299 300 301 301 302 304 308 312 316 319 321 322 322 323 324 325 326
303 303 303 302 301 301 300 300 299 299 298 298 298 297 297 297 296 296 295 295 295 295 295 295 294 294 294 294 294 293 294 294 295 295 296 296 296 296 297 297 297 298 298 298 299 299 299 299 300 300 300 301 303 306 309 314 319 321 321 321 322 323 324
303 303 302 302 301 301 300 299 299 298 298 297 297 297 296 296 296 295 295 295 294 294 294 294 294 293 293 293 293 293 293 294 294 295 295 296 296 296 296 297 297 297 298 298 299 299 300 300 300 300 300 300 301 302 304 308 316 319 319 319 320 320 322
302 302 301 301 301 300 299 299 298 298 297 297 296 296 296 295 295 295 295 294 294 294 293 293 293 293 292 292 292 293 293 293 293 294 294 295 296 296 296 296 297 297 297 298 299 299 300 300 300 300 300 300 301 302 302 306 313 317 316 316 316 316 316
301 300 300 300 299 299 299 298 298 298 297 296 296 296 295 295 295 294 294 294 294 293 293 292 292 292 292 292 292 292 292 292 292 293 293 294 295 295 296 296 296 296 297 298 299 299 300 301 301 302 302 302 303 303 303 306 312 315 314 312 312 311 311

ECMWFFLT1_925_thetae_009.txt.gz
Theta_e
316 312 311 312 314 314 312 313 316 316 317 318 317 315 313 313 316 317 318 318 319 319 319 319 320 320 320 320 321 322 324 327 329 330 330 329 331 332 332 333 332 331 331 331 331 331 331 332 330 329 328 328 328 327 327 328 327 326 326 326 326 326 326
317 313 310 311 314 316 314 314 316 317 316 316 316 316 315 312 312 313 314 315 317 318 319 319 319 319 319 319 320 320 321 323 325 327 329 330 330 331 331 332 331 330 330 330 331 330 330 330 330 330 330 329 329 328 327 328 327 326 326 326 326 326 326
317 314 311 313 314 314 314 315 316 316 316 316 316 315 315 314 311 310 309 310 312 313 315 316 318 319 319 318 319 319 320 321 321 323 325 328 329 329 331 332 331 330 330 330 330 330 330 330 330 330 329 329 330 329 328 327 327 327 326 326 326 326 326
317 314 313 316 316 314 316 316 315 316 317 317 316 314 314 314 313 312 311 309 308 309 310 311 311 314 316 318 319 319 320 320 321 321 322 324 327 328 330 331 331 331 330 330 329 330 330 329 330 329 328 328 328 329 330 329 328 327 327 326 327 327 326
316 315 315 316 315 314 317 316 315 316 315 315 316 314 315 315 315 315 314 311 311 312 313 313 312 312 313 314 315 317 318 319 320 320 321 322 324 327 328 329 330 330 330 330 329 329 329 329 328 328 328 328 329 329 329 330 329 328 327 327 327 327 327
315 315 315 315 316 315 317 316 315 315 315 315 315 314 315 316 316 316 314 312 314 315 316 316 315 315 314 313 313 313 314 316 317 319 319 320 321 323 325 326 328 329 329 330 330 330 330 328 327 328 329 329 331 330 329 329 328 328 328 328 327 327 326
316 315 315 316 317 316 315 315 315 315 314 315 315 314 315 315 314 313 312 312 313 313 313 312 312 312 312 313 313 313 314 315 315 316 318 318 319 320 321 323 325 327 327 329 330 331 330 328 327 329 330 330 330 329 329 328 327 327 328 327 328 328 327
316 315 314 316 318 316 315 315 315 315 313 313 314 313 313 313 312 312 311 311 311 310 310 310 310 310 310 311 312 313 313 314 314 315 315 317 318 318 319 320 322 324 326 327 328 330 330 330 329 329 329 329 330 329 329 329 327 327 327 326 327 327 327
316 315 314 316 317 315 315 315 315 314 313 313 313 313 313 313 312 313 312 312 311 311 311 311 311 311 311 311 310 311 311 312 312 313 314 315 316 316 318 318 319 321 323 325 327 328 329 331 330 329 328 327 328 329 329 329 329 329 327 326 326 325 326
316 315 314 315 315 315 315 314 314 314 314 312 312 312 311 312 312 312 312 312 311 311 311 310 310 309 309 309 309 309 310 310 310 311 312 313 314 314 315 317 318 319 321 323 325 326 327 329 329 329 329 328 327 327 328 329 329 328 327 326 327 325 325
316 315 313 312 314 315 315 314 313 313 312 311 311 311 311 311 312 311 311 311 311 310 310 309 309 308 308 308 308 308 308 308 309 309 309 310 311 313 313 314 316 317 319 321 323 325 326 327 328 329 329 328 327 326 326 328 328 326 326 326 327 326 326
316 315 313 313 313 314 314 313 312 310 310 311 311 311 311 311 310 309 310 310 309 309 309 308 308 308 307 307 307 307 307 307 308 308 308 309 310 311 312 313 314 316 318 319 321 324 326 326 327 328 327 327 328 328 327 327 328 327 326 327 327 327 327
315 314 314 313 314 313 313 312 311 310 311 312 311 311 310 309 309 309 309 309 308 308 307 307 307 307 307 306 306 307 307 307 307 307 308 308 308 309 310 312 313 315 316 317 319 322 324 326 327 327 327 326 327 328 327 327 327 327 327 326 327 327 327
315 314 314 313 313 313 313 312 311 311 312 311 311 309 308 308 309 309 308 308 307 307 306 306 306 306 306 306 306 306 306 306 306 306 307 307 307 308 308 309 311 313 314 316 317 319 321 324 327 327 327 327 327 328 328 327 327 327 327 327 326 327 328
315 314 313 312 312 313 312 311 311 311 311 310 310 309 309 309 309 309 308 308 307 307 306 306 306 306 305 305 305 305 305 305 305 306 306 306 306 307 307 308 309 310 312 313 315 316 318 321 324 326 327 327 327 327 328 328 327 327 327 327 326 327 327
315 314 313 312 312 312 311 311 311 310 310 310 309 309 309 309 309 308 308 307 307 307 306 306 305 305 305 305 305 305 305 305 305 305 305 305 306 306 306 307 307 308 309 311 312 314 315 317 320 323 326 327 327 327 328 328 328 328 327 327 326 326 327
315 314 313 313 313 312 311 310 310 310 310 310 310 310 310 309 309 308 307 307 307 306 306 306 305 305 305 305 305 305 305 305 305 305 305 305 305 305 306 306 307 307 308 309 310 312 313 314 316 319 322 325 326 327 327 328 328 327 327 327 327 327 327
315 314 313 313 313 312 312 311 311 311 311 311 310 310 310 309 308 307 307 306 306 305 305 305 305 305 305 305 305 305 305 305 305 305 305 305 305 305 305 306 306 306 307 307 308 310 312 313 314 316 318 321 323 325 326 327 327 327 327 327 327 327 327
315 314 313 313 312 312 312 312 311 311 311 310 310 310 309 308 307 306 306 305 305 305 305 304 305 305 305 305 305 305 305 305 305 305 305 305 305 305 305 305 305 305 306 306 307 308 310 311 313 314 315 318 320 322 324 325 326 327 327 327 326 326 327
314 313 313 313 312 312 312 312 311 311 311 310 309 308 307 307 306 305 305 304 304 304 304 304 304 304 304 304 304 304 304 304 304 304 304 304 304 304 304 304 304 304 305 306 306 307 308 309 310 312 314 315 317 320 322 323 324 326 326 326 325 326 326
314 314 313 313 312 312 311 311 311 310 309 309 308 307 306 306 305 304 304 304 304 304 303 303 303 304 304 304 304 304 304 304 304 304 304 304 304 304 304 304 304 304 304 304 305 305 306 307 308 308 310 311 313 315 318 321 322 324 325 325 325 326 325
314 314 313 312 312 312 311 311 310 309 308 308 307 306 305 304 304 304 304 303 303 303 302 302 302 302 303 303 303 304 304 304 304 304 304 304 304 304 304 304 304 304 304 304 304 304 304 305 305 306 306 307 308 309 311 315 319 322 323 324 324 325 324
314 313 312 312 312 311 310 309 309 308 307 307 306 305 304 304 303 303 303 302 302 302 301 301 301 301 301 302 302 302 302 302 302 302 302 302 303 303 303 303 303 303 303 303 303 304 304 304 304 305 305 305 306 306 307 309 313 317 321 323 324 323 323
313 313 312 311 311 310 309 308 308 307 307 306 305 304 304 303 303 302 302 301 301 301 300 300 300 300 300 300 300 300 300 300 300 300 300 301 301 301 302 302 302 302 302 302 302 302 303 303 304 304 305 305 306 306 307 307 309 312 316 319 322 323 322
313 312 311 310 310 309 308 308 307 306 306 305 304 303 303 303 302 301 301 300 300 300 300 300 300 300 299 299 299 299 299 299 299 299 299 299 299 300 300 300 301 301 301 301 301 301 301 301 302 303 304 305 306 306 307 308 308 309 312 314 317 320 321
311 311 310 309 308 308 308 307 306 305 304 304 303 303 303 302 301 301 300 300 300 299 299 299 299 299 299 299 299 299 299 299 299 298 298 298 298 298 298 299 299 300 300 301 301 301 301 300 300 301 302 303 305 306 307 308 308 309 310 312 314 316 317
310 310 309 308 308 307 307 306 305 304 304 303 303 302 302 301 300 300 299 299 299 299 299 299 299 299 299 299 299 299 299 298 298 298 298 297 298 298 298 298 298 299 299 300 300 300 300 300 300 300 300 302 303 305 307 309 309 310 310 311 312 313 314
309 309 308 307 307 307 306 305 304 304 303 303 302 301 300 300 300 299 299 299 299 298 298 298 298 298 298 298 298 298 297 297 297 296 297 297 297 297 297 297 298 298 298 298 299 299 300 300 300 300 300 300 301 302 303 306 308 310 312 312 313 313 313
308 307 307 306 306 306 305 304 304 303 302 302 300 300 300 299 299 298 298 298 298 298 298 297 297 297 297 297 297 296 296 296 296 296 295 295 296 296 296 296 297 297 297 297 298 298 298 299 299 299 300 300 300 300 301 302 305 307 309 312 314 315 315
307 307 306 306 305 305 304 304 303 302 301 300 300 299 299 298 298 298 297 297 297 297 297 297 296 296 296 296 296 296 295 295 295 295 295 295 295 295 295 295 296 296 296 297 297 298 298 298 298 299 299 299 299 299 300 300 302 304 306 309 311 313 316
306 306 305 305 304 303 303 302 301 301 300 300 299 299 298 298 297 297 297 296 296 296 296 296 296 295 295 295 295 295 295 294 294 294 294 294 294 294 294 294 295 295 296 296 297 297 298 298 298 298 299 299 299 299 299 300 301 303 306 308 310 312 315
305 305 304 303 303 302 302 301 301 300 300 299 299 298 298 297 297 296 295 295 295 295 296 295 295 295 295 294 294 294 294 294 293 293 293 293 293 293 294 294 294 295 295 296 296 296 297 297 298 298 299 299 299 299 299 299 300 302 306 309 310 312 315
304 304 304 303 302 302 301 301 300 300 299 299 298 298 297 297 296 295 295 294 295 295 295 295 294 294 294 294 294 294 293 293 293 293 293 293 293 293 293 293 294 294 295 295 295 296 296 297 297 297 298 299 299 299 299 299 300 301 304 306 307 308 310
304 303 303 302 301 301 301 301 300 300 299 298 298 297 297 296 296 295 295 295 294 294 294 294 294 294 294 294 293 293 293 293 292 292 292 292 292 292 293 293 293 294 294 295 295 296 296 296 296 297 297 298 298 299 299 299 299 300 301 302 303 304 305
302 302 302 301 301 301 301 300 300 299 298 298 297 297 297 296 296 296 295 295 294 294 294 293 293 293 293 293 293 293 292 292 292 292 291 291 292 292 292 292 293 293 293 294 295 296 296 296 296 297 297 297 298 298 298 298 298 299 299 299 300 302 303
302 302 302 301 301 300 299 299 299 298 298 297 297 296 296 296 296 295 295 294 293 293 293 293 292 292 292 292 292 292 291 291 291 291 290 291 291 291 292 292 292 292 292 293 294 295 296 296 296 297 297 297 297 298 298 298 298 298 299 299 299 300 302
301 301 300 299 299 298 298 298 298 298 297 297 296 296 296 296 295 294 294 293 292 292 292 292 292 291 291 291 290 290 290 290 290 290 290 290 290 291 291 291 291 291 291 292 292 293 295 295 296 296 297 297 297 298 298 298 298 298 298 298 299 300 302

ECMWFFLT1_925_thetae_012.txt.gz
Theta_e
317 316 313 312 314 314 311 310 310 310 309 309 309 309 309 311 313 313 314 315 317 318 319 319 320 320 320 320 319 319 319 320 323 326 328 328 328 328 328 329 330 330 330 329 329 330 331 333 332 329 329 329 328 327 326 326 325 326 326 326 327 326 326
317 314 311 312 312 310 309 310 312 311 311 310 309 308 307 307 307 307 307 309 311 313 316 317 317 318 318 319 318 318 319 319 320 321 323 324 325 327 328 328 329 330 330 330 329 329 330 331 331 330 329 328 329 328 327 328 326 326 326 326 327 326 326
317 313 310 311 310 309 309 311 312 313 313 312 310 309 308 307 306 306 305 305 305 307 309 311 312 313 315 316 317 317 317 317 318 318 319 320 322 323 326 328 329 329 329 330 329 329 329 330 330 330 328 328 329 329 328 328 327 327 327 327 327 327 327
318 313 311 311 311 310 309 310 312 313 314 315 314 311 309 309 309 308 308 307 306 306 306 307 308 309 311 312 313 314 314 314 314 315 316 317 319 320 321 324 326 327 328 329 329 329 329 329 329 329 329 328 329 329 329 329 328 328 328 327 327 327 327
316 314 313 312 312 311 309 309 312 314 315 316 316 314 311 311 312 311 311 311 309 308 309 309 310 311 312 312 313 313 312 312 312 313 314 315 316 317 318 319 321 323 325 327 328 328 329 329 328 328 328 328 328 328 328 328 328 328 328 328 327 327 326
315 315 314 313 313 312 309 309 311 313 315 316 316 315 312 313 314 314 314 313 311 309 310 312 312 313 312 312 311 310 310 310 311 312 312 313 314 315 316 317 317 319 321 324 325 327 328 329 329 328 328 327 327 327 327 327 328 328 328 329 328 326 326
315 315 315 314 313 314 312 310 310 311 314 314 315 314 314 314 316 315 315 314 311 309 310 310 310 309 309 309 308 308 308 308 309 310 310 311 312 313 314 315 316 316 317 319 321 324 326 328 328 328 327 327 327 327 328 328 328 328 328 328 328 327 327
315 315 316 315 314 315 314 312 310 311 312 313 314 314 314 315 315 314 313 312 311 310 310 308 307 308 308 308 308 308 308 307 307 308 309 309 310 310 311 312 313 314 315 316 318 320 322 325 327 327 327 328 329 328 328 328 328 328 328 328 328 327 327
316 316 316 315 314 315 314 313 312 312 313 314 314 314 314 314 313 312 311 311 311 310 309 308 308 309 309 309 308 308 308 307 307 307 308 308 308 308 309 310 311 312 313 314 315 316 318 321 323 326 327 328 329 330 329 328 327 327 328 328 328 328 327
316 316 316 315 315 315 315 315 314 313 314 314 313 313 313 312 311 310 310 311 311 310 308 309 309 309 309 309 308 308 308 307 307 307 307 307 307 307 307 308 308 309 311 312 314 315 316 317 320 323 326 327 328 329 329 329 328 327 327 327 327 327 327
316 316 316 315 314 315 317 316 314 314 315 314 313 313 311 310 309 309 310 310 310 309 309 309 309 308 308 308 307 307 307 306 306 306 306 306 306 306 307 307 307 307 309 310 312 313 314 316 318 320 324 326 327 327 326 327 327 326 325 326 326 326 327
316 315 316 316 314 315 316 316 314 314 315 314 313 312 310 309 309 310 310 309 308 308 309 308 307 307 307 307 307 307 306 306 306 306 305 305 305 306 306 306 306 306 307 308 309 311 312 314 316 318 321 324 326 326 325 325 326 326 325 326 326 326 326
316 316 316 316 315 314 315 315 315 314 314 313 312 310 309 310 310 309 308 308 308 308 308 307 307 306 306 306 306 306 306 305 305 305 305 305 305 305 305 305 305 306 306 307 307 308 309 311 313 315 317 321 324 326 325 325 325 326 325 325 326 327 327
317 316 317 316 315 313 313 314 314 314 313 311 310 309 310 310 309 308 308 308 308 308 307 307 306 306 306 305 305 305 305 305 305 305 305 304 305 305 305 305 305 305 305 306 306 307 307 309 310 312 313 316 319 323 325 325 325 325 325 325 326 327 327
317 317 317 316 315 313 313 314 314 313 312 310 309 310 310 309 308 308 308 309 308 308 307 307 306 306 305 305 305 305 305 305 305 305 304 304 304 304 304 304 304 305 305 305 306 306 307 307 308 310 311 313 315 318 321 324 325 325 325 325 326 326 326
318 317 316 316 315 314 313 313 313 313 311 309 310 310 310 309 308 309 309 308 308 307 307 306 306 306 305 305 305 305 305 305 305 305 305 304 304 304 304 304 304 304 305 305 305 305 306 306 306 308 309 311 313 314 316 319 322 324 325 325 326 326 326
318 317 316 315 314 314 313 313 313 312 310 309 310 310 309 309 309 309 308 307 307 306 306 306 305 305 305 305 305 305 305 305 305 305 304 304 304 304 304 304 304 304 304 304 305 305 305 305 305 306 308 309 311 313 314 316 318 321 323 324 325 326 326
318 317 316 315 314 313 313 313 312 310 309 309 310 310 310 310 309 309 308 307 306 305 305 305 304 304 304 304 304 304 304 304 304 304 304 304 304 304 304 304 304 304 304 304 304 304 304 304 305 306 307 307 309 310 312 313 315 318 320 322 323 325 326
318 317 316 315 314 313 312 312 311 310 309 310 310 310 310 310 309 308 307 306 305 304 304 304 304 304 304 303 303 304 304 304 304 304 304 304 303 303 303 303 303 304 304 304 303 303 304 304 304 305 305 306 307 308 308 309 310 312 314 317 320 322 325
318 317 316 315 314 313 312 312 311 310 310 311 311 310 310 309 308 307 306 305 304 304 304 303 303 303 303 303 303 302 302 302 303 303 303 303 303 303 303 303 303 303 303 304 304 304 304 303 304 304 304 304 305 305 305 305 306 307 309 311 314 318 322
318 317 316 315 313 313 312 312 311 311 311 311 311 310 310 308 307 306 305 304 304 303 303 303 302 302 302 301 301 301 301 301 301 301 302 302 302 302 303 303 303 303 303 303 304 304 304 304 304 304 304 304 304 304 304 304 305 306 307 308 310 313 317
317 316 315 314 313 313 312 312 311 311 311 311 310 310 308 307 306 305 304 304 303 303 302 302 301 301 301 300 300 300 299 300 300 300 300 300 300 300 301 301 302 302 302 302 302 303 303 303 303 302 302 302 303 303 304 304 304 305 305 307 308 310 313
316 316 315 314 313 312 312 312 311 311 311 310 309 308 307 306 305 304 303 303 303 302 301 301 300 300 300 299 299 299 299 299 299 299 299 299 299 299 299 299 300 300 301 301 301 301 301 301 301 301 301 301 302 302 302 303 303 304 305 306 307 308 310
315 315 314 313 313 312 312 311 311 311 310 309 308 307 306 305 304 303 303 302 301 301 300 300 299 299 299 299 299 299 299 299 299 299 298 298 298 298 298 298 298 298 299 299 299 300 300 300 300 300 300 301 301 301 301 301 302 302 304 305 306 307 309
315 314 314 313 313 312 311 311 311 310 309 308 307 306 305 304 303 302 302 301 300 300 299 299 299 298 298 298 298 299 299 299 299 298 298 298 298 298 298 298 298 298 298 298 298 298 299 299 299 300 300 300 300 300 300 300 300 301 301 303 304 306 307
314 314 314 313 312 312 311 311 310 309 308 307 306 305 303 302 302 301 300 300 299 299 298 298 298 298 298 297 298 298 298 298 298 298 297 298 297 297 297 297 297 297 297 297 297 297 297 298 298 298 299 299 299 300 300 300 300 300 300 301 303 305 306
314 313 313 312 312 311 311 310 309 308 307 305 304 303 302 302 301 300 300 299 299 298 297 296 296 296 296 297 297 297 296 296 296 296 296 296 296 296 296 296 296 296 296 296 296 296 297 297 297 297 298 298 299 299 299 300 300 300 300 301 302 303 305
314 313 313 312 311 310 309 308 308 306 305 304 303 302 301 301 300 299 299 298 297 296 294 294 294 294 295 295 295 295 295 295 295 295 295 295 295 295 295 295 295 295 295 295 295 296 296 296 296 297 297 297 298 298 298 299 299 299 299 300 300 302 303
313 312 312 311 310 309 308 307 306 304 303 303 302 301 300 300 299 299 298 297 296 294 294 293 293 293 294 294 294 295 295 295 295 294 294 294 294 294 294 294 294 294 294 294 294 295 295 295 295 296 296 297 297 297 297 298 298 298 299 299 299 300 301
312 311 310 309 308 308 307 305 304 303 302 302 301 300 300 299 298 298 297 295 295 294 294 294 294 294 294 294 294 294 294 295 294 294 294 294 294 293 293 293 293 293 294 294 294 294 294 294 295 295 296 296 296 297 297 297 298 298 298 298 298 299 299
310 309 308 307 306 305 304 303 302 302 301 301 300 300 299 298 298 298 296 295 295 295 295 295 294 294 294 294 294 294 294 294 294 294 294 293 293 293 293 293 293 293 293 293 293 293 293 294 294 295 295 296 296 296 297 297 297 298 298 298 298 298 299
308 307 306 305 304 303 302 302 301 301 300 300 299 299 298 298 298 297 296 295 296 295 295 294 293 293 293 293 293 294 294 293 293 293 293 293 293 292 292 292 292 292 292 292 292 292 292 293 293 294 295 295 296 296 296 297 297 298 298 298 298 298 298
307 306 305 303 303 302 301 300 300 300 299 299 299 299 299 298 297 296 296 296 295 294 293 292 292 292 293 293 293 293 293 293 292 292 292 292 292 292 292 292 292 292 291 291 291 292 292 292 293 293 294 294 295 296 296 296 297 297 298 298 298 298 298
305 304 303 302 301 300 299 299 299 299 299 299 299 299 298 298 297 296 296 295 293 292 291 291 291 292 292 292 292 292 292 292 291 291 291 291 291 291 291 291 291 291 291 291 291 291 291 292 292 293 293 294 294 295 295 296 296 297 298 298 298 298 298
303 302 301 300 299 299 299 299 300 300 300 299 299 299 298 297 296 296 294 293 291 291 291 291 291 291 291 291 291 291 291 291 290 290 290 290 290 290 290 290 290 290 290 290 290 291 291 291 292 292 293 293 293 294 295 295 296 296 297 297 298 298 298
302 300 300 298 298 298 299 299 299 300 300 299 299 298 297 296 296 294 293 292 291 291 291 291 291 291 291 291 290 290 290 290 290 289 289 290 290 290 290 290 290 290 290 290 290 290 290 291 291 291 292 292 292 293 294 295 295 296 296 297 297 297 297
300 299 299 298 298 298 298 298 298 299 299 298 298 297 296 296 295 293 291 291 291 290 291 291 291 291 290 290 290 290 290 290 289 289 289 289 289 289 290 290 289 289 289 289 289 289 290 290 290 291 291 291 292 292 293 294 295 295 296 296 296 297 297

ECMWFFLT1_925_thetae_015.txt.gz
Theta_e
312 311 310 310 310 311 311 310 310 311 313 313 312 312 313 315 316 315 315 315 316 317 317 318 318 318 318 318 318 318 318 318 318 318 319 320 322 323 324 325 326 327 328 328 328 329 330 331 329 329 329 328 328 328 327 327 326 326 326 325 325 326 326
313 312 311 311 310 309 308 308 308 309 311 312 312 310 309 310 311 310 309 309 310 311 312 313 313 315 315 316 316 316 316 315 315 315 316 317 318 318 320 322 323 325 327 327 327 328 329 330 329 329 329 329 329 329 328 328 328 328 327 326 326 325 325
314 315 314 313 312 309 307 307 307 308 309 310 311 310 308 307 306 306 306 305 306 306 307 308 308 309 311 312 313 313 312 312 311 312 313 314 315 316 317 318 320 322 324 326 327 327 328 329 329 329 328 328 329 329 328 328 328 328 328 328 327 326 326
314 316 315 314 314 311 308 306 307 307 309 310 311 311 309 308 308 307 307 307 306 306 306 307 308 310 311 312 312 311 310 309 309 309 310 311 312 313 314 316 317 318 320 322 323 324 326 328 328 328 328 328 328 328 328 328 328 328 328 328 328 328 327
314 315 315 313 312 310 308 307 306 306 308 311 312 313 311 310 311 311 310 309 309 309 308 308 310 311 310 310 309 308 308 307 308 308 308 308 309 310 312 313 314 315 316 317 318 319 322 324 326 327 327 327 328 328 327 327 328 327 328 328 328 328 328
315 315 315 313 311 309 308 307 307 307 307 309 311 312 312 311 313 314 313 313 313 311 310 309 310 309 308 308 308 308 307 307 307 307 307 307 307 308 309 310 311 312 313 313 314 316 317 319 322 324 325 325 326 327 327 327 327 327 327 327 328 328 327
316 316 316 315 312 311 311 309 307 306 307 307 308 309 311 312 313 314 315 314 314 312 310 310 309 307 306 308 308 308 308 307 307 307 307 307 306 307 307 307 308 309 310 311 312 313 314 316 319 321 322 323 324 325 326 326 327 327 327 327 327 328 328
316 316 316 315 314 313 312 312 310 308 307 308 309 310 312 313 313 314 315 314 313 311 310 309 307 306 306 308 308 308 308 308 307 307 306 306 306 306 306 306 306 307 307 308 310 311 312 314 316 318 319 321 323 324 325 325 326 326 327 326 327 327 328
315 315 315 314 314 314 314 313 312 311 309 309 310 312 313 314 314 314 314 313 312 311 309 307 306 306 306 307 308 308 307 307 307 306 306 306 306 305 305 305 305 306 306 306 307 309 310 312 314 315 317 320 321 323 324 325 326 326 326 326 326 327 327
315 315 315 314 314 314 314 314 313 312 311 310 311 312 313 314 314 313 312 311 311 309 307 306 306 306 306 306 306 306 307 307 306 306 306 306 305 305 305 305 305 305 305 305 306 307 308 310 311 313 315 317 319 321 323 323 325 326 325 325 326 325 325
316 315 315 314 314 315 314 314 314 313 312 311 311 313 313 313 313 312 311 309 308 307 306 306 306 307 306 306 306 305 306 306 305 305 305 305 305 304 304 304 305 305 305 305 305 305 306 307 309 310 311 313 315 318 321 322 323 324 324 324 324 324 324
316 316 316 315 315 315 315 315 314 313 314 312 311 313 313 313 312 311 309 308 307 307 306 307 307 307 306 306 306 306 305 305 305 305 305 304 304 304 304 304 304 304 304 304 304 305 305 306 307 308 309 310 311 313 317 319 321 323 324 324 324 324 324
318 316 317 316 316 316 315 315 314 314 314 314 312 313 313 313 311 309 308 307 307 307 307 307 307 307 306 306 306 306 305 305 305 305 305 304 304 304 304 304 304 304 304 304 304 304 305 305 306 306 307 308 309 311 314 316 319 320 321 323 324 324 324
319 317 317 317 316 316 315 315 315 314 315 314 313 313 314 312 309 308 308 307 307 307 308 308 307 307 306 306 306 305 305 305 305 304 305 305 304 304 304 304 304 304 304 304 304 304 304 305 305 305 305 306 307 309 312 314 316 317 317 319 321 322 322
319 318 317 317 317 316 316 315 314 315 315 314 314 314 313 310 309 308 308 307 307 308 308 308 307 306 306 305 305 305 305 305 305 305 304 305 305 304 304 303 303 303 304 304 304 304 304 304 304 304 304 304 305 307 309 312 314 315 316 316 317 319 319
320 318 317 317 316 315 315 315 315 315 315 314 314 313 311 309 309 309 308 308 308 308 308 307 307 306 305 305 305 304 304 304 304 304 304 304 304 304 304 303 303 303 303 304 304 304 304 304 303 303 304 304 305 306 307 309 312 314 314 315 315 316 318
319 318 317 317 316 316 316 316 315 315 314 314 313 311 309 309 309 309 308 308 308 308 307 306 306 305 305 304 304 304 304 304 304 303 304 304 304 304 304 304 303 303 303 303 303 303 303 303 303 303 303 304 305 305 305 307 309 309 309 310 311 312 314
318 318 317 317 316 316 316 316 315 314 314 314 312 310 309 310 309 309 309 309 308 307 306 305 305 304 304 303 304 303 303 303 303 303 303 303 303 303 304 303 303 303 303 302 303 303 303 303 303 303 303 303 303 303 304 304 305 305 305 307 308 308 310
318 318 317 317 316 316 316 315 314 314 314 313 311 310 310 310 309 309 309 308 307 306 305 304 304 303 303 303 303 302 302 302 301 301 301 301 301 302 302 303 302 302 303 303 303 303 303 303 303 303 303 303 303 303 303 304 303 303 304 305 305 306 307
319 318 318 317 317 316 316 315 314 313 313 312 310 310 310 310 310 309 308 307 306 305 304 304 303 303 302 302 302 301 301 300 300 300 299 299 299 299 300 300 301 301 302 302 302 302 302 303 303 303 303 303 303 303 303 303 303 303 303 303 304 305 305
319 318 317 317 316 316 315 314 313 313 312 310 310 310 310 310 309 308 307 306 305 304 303 303 302 302 301 300 300 300 299 299 299 299 299 299 298 299 299 299 299 299 299 300 301 301 302 302 302 303 303 303 302 302 302 302 302 302 302 303 303 303 304
317 317 316 316 316 315 314 314 313 312 311 310 310 310 310 309 308 307 306 304 304 303 302 302 301 300 300 299 299 299 298 298 299 299 299 299 299 298 298 298 298 298 298 298 299 299 300 300 301 301 301 301 301 301 301 301 301 302 302 302 302 303 303
316 315 314 314 314 314 314 313 312 311 311 310 310 310 309 308 307 306 305 303 303 302 302 301 300 299 299 298 298 298 298 298 298 298 298 298 298 298 298 298 298 298 298 298 298 298 298 298 298 299 299 300 300 300 300 300 300 300 301 301 301 302 302
315 314 312 312 313 313 313 313 312 311 311 310 310 310 309 307 306 305 304 303 302 302 301 300 299 298 297 296 295 295 296 297 297 297 298 297 297 297 297 297 297 297 297 298 298 298 297 297 297 297 297 298 298 299 299 299 300 300 300 300 300 300 301
315 313 313 314 314 314 313 313 312 311 311 311 310 309 308 306 305 304 303 302 302 301 300 299 298 296 295 294 293 293 294 295 295 296 296 296 296 296 296 296 296 296 296 296 297 297 297 297 297 297 297 297 297 297 298 298 299 299 299 300 300 300 300
315 314 315 315 315 315 313 312 312 311 311 310 309 308 306 305 304 303 302 301 301 300 298 297 296 294 293 293 293 293 293 293 294 294 295 295 295 295 295 295 295 295 295 296 296 296 296 296 296 296 296 296 296 296 297 297 297 298 299 299 299 299 299
315 314 315 314 313 313 312 312 311 311 310 309 308 306 305 304 303 302 301 300 299 298 296 295 294 293 294 294 293 292 293 293 293 294 294 294 294 294 294 294 294 294 295 295 295 295 295 295 295 295 295 295 295 296 296 296 296 297 298 298 299 299 299
314 313 313 313 313 312 312 312 311 310 309 308 307 305 304 303 302 301 300 299 297 296 295 294 294 294 294 293 292 292 292 293 293 293 294 294 294 294 294 294 294 294 294 294 294 294 294 294 294 295 294 295 295 295 295 295 296 296 297 298 298 299 299
312 312 312 313 313 312 312 311 310 309 308 306 305 304 303 302 301 300 299 297 296 295 295 295 295 294 293 292 291 291 292 292 293 293 293 293 293 293 293 293 293 293 293 293 293 293 293 293 294 294 294 294 294 294 294 294 295 295 296 296 297 298 298
311 311 312 312 311 311 311 310 309 308 306 304 303 302 302 301 299 298 298 297 296 295 295 295 294 292 291 291 291 291 291 292 292 293 293 293 293 293 293 293 293 293 293 293 293 293 293 293 293 293 293 293 293 293 293 294 294 294 295 295 296 296 297
310 311 312 311 311 310 310 308 307 306 305 303 302 301 300 299 298 298 297 297 296 295 295 294 292 291 291 291 291 291 291 291 292 292 292 292 292 292 292 292 292 292 292 292 293 292 292 292 293 293 293 292 292 293 293 293 294 294 295 295 295 296 296
310 310 310 310 309 308 307 306 305 304 303 302 300 299 298 298 298 298 297 296 296 296 294 293 291 291 291 291 291 291 291 291 291 291 291 291 291 291 291 291 291 291 292 292 292 292 292 292 292 292 292 292 292 292 292 292 293 293 294 294 295 295 295
308 308 307 307 306 306 305 304 303 301 300 299 298 298 298 298 298 298 297 296 296 295 293 292 291 291 290 291 291 291 291 290 291 291 291 291 291 290 290 290 290 290 290 290 290 291 291 291 291 291 291 291 291 291 292 292 292 293 293 294 294 295 295
305 305 305 305 304 303 302 301 300 299 298 298 298 298 298 298 298 298 297 296 296 294 293 292 291 290 290 291 291 291 291 290 290 290 290 290 290 290 290 289 289 289 289 289 289 290 290 290 290 290 290 290 290 291 291 291 292 292 292 293 294 295 295
304 303 303 302 301 299 299 298 298 298 298 298 298 299 299 298 298 297 296 296 295 294 293 292 290 290 291 291 291 291 290 290 290 290 290 290 289 289 289 289 289 289 289 289 289 289 289 289 289 289 289 290 290 290 290 291 291 292 292 293 293 294 295
303 301 299 298 297 298 298 298 298 298 299 298 298 298 298 298 297 296 296 295 295 294 293 292 290 290 290 291 291 291 290 290 290 289 289 289 289 289 289 289 289 289 289 289 289 289 289 289 289 289 289 289 289 289 290 290 290 291 292 292 293 293 294
300 298 297 297 297 297 298 298 298 298 298 298 298 298 298 297 296 296 296 295 294 293 293 292 290 290 290 290 290 290 290 290 289 289 289 289 289 289 289 289 289 289 289 289 289 289 289 289 289 289 289 289 289 289 289 289 290 290 291 291 292 292 293

ECMWFFLT1_925_thetae_021.txt.gz
Theta_e
309 308 309 311 312 314 316 313 310 312 313 314 315 316 316 315 314 314 315 314 314 313 313 313 313 313 313 313 313 314 315 316 318 320 321 321 322 322 322 324 324 325 326 327 328 329 330 331 330 329 329 328 327 327 327 328 328 327 327 327 327 328 328
309 308 309 311 313 314 316 313 310 310 311 312 312 313 312 310 308 308 309 308 308 308 309 309 308 308 308 308 308 308 309 310 311 313 316 318 319 319 320 321 322 323 325 325 325 326 327 328 329 328 328 328 327 328 327 327 328 328 328 328 327 327 328
310 308 309 312 314 315 316 313 310 310 311 311 310 309 308 306 306 306 306 306 307 307 308 307 307 307 307 306 306 306 306 306 307 308 310 313 314 315 317 318 319 320 322 322 322 323 324 326 326 326 326 326 326 327 326 326 326 326 327 327 326 326 327
311 309 309 311 313 314 315 314 311 310 310 310 309 308 307 307 308 308 308 309 308 308 307 307 307 307 307 307 307 307 306 307 307 306 307 307 309 311 312 314 316 317 318 319 319 320 321 322 323 323 324 324 324 324 325 326 325 325 326 326 327 327 326
311 311 310 309 310 311 312 313 312 310 311 311 310 309 309 309 310 311 311 310 310 309 307 306 307 307 307 308 308 308 308 307 308 307 307 306 307 308 309 310 312 313 314 315 316 317 318 319 320 321 322 321 321 322 323 324 324 324 325 325 326 327 327
311 311 311 310 309 308 309 310 311 310 310 310 310 310 309 310 311 312 313 312 311 310 308 306 306 306 307 308 308 309 308 308 308 308 308 307 307 307 308 308 309 310 310 310 311 313 315 316 317 318 319 319 320 321 321 322 323 323 324 324 325 325 326
312 311 311 311 311 309 308 307 307 308 308 308 308 308 308 310 311 312 313 313 312 310 308 306 305 305 306 308 308 308 308 308 308 307 307 307 307 307 307 308 308 308 308 308 309 310 311 313 315 316 316 317 317 319 319 319 320 321 322 323 324 324 325
312 312 311 311 311 312 310 308 307 306 306 307 307 308 308 310 311 312 313 313 313 311 308 306 305 305 305 307 308 308 307 307 307 307 307 307 307 306 306 307 307 307 307 307 308 308 309 310 311 312 313 314 314 315 317 317 318 319 320 320 320 322 324
313 313 312 311 311 312 313 312 310 307 306 306 307 308 309 310 311 312 314 314 313 311 308 306 306 306 305 306 307 307 307 307 307 307 307 307 307 306 306 306 306 307 306 306 307 307 307 308 308 309 310 312 312 313 314 315 316 317 318 318 319 321 323
315 314 313 312 311 311 313 313 313 311 309 307 307 309 310 311 312 313 314 314 313 310 307 306 306 306 306 307 307 307 307 307 307 307 307 307 307 307 307 306 306 306 306 306 306 306 307 307 307 308 308 310 311 311 311 312 313 315 317 317 318 319 320
316 314 314 312 311 311 312 313 314 313 311 309 308 308 310 311 312 313 314 313 312 310 307 306 306 306 307 307 307 307 306 307 307 307 307 306 306 306 306 306 306 306 306 306 306 306 306 306 307 307 307 308 309 310 311 311 311 313 315 315 316 317 318
316 314 313 312 311 312 312 313 314 314 314 312 309 309 310 311 312 313 314 313 312 309 306 306 307 307 307 307 307 307 305 306 307 307 306 306 306 306 306 306 306 306 305 305 305 306 306 306 306 306 307 307 307 308 309 309 309 311 313 314 315 316 316
316 314 313 312 312 313 313 313 314 314 315 314 311 310 310 311 312 313 313 313 311 308 306 306 307 307 307 307 307 307 305 305 307 306 306 306 305 305 305 305 305 305 305 305 305 305 305 305 305 305 306 306 306 306 307 308 308 309 310 311 312 313 313
316 315 314 313 313 314 315 314 314 314 315 314 313 312 311 312 312 312 313 312 310 308 306 307 307 307 307 307 306 306 305 305 306 306 305 305 305 304 304 304 304 304 304 305 305 305 305 305 304 305 305 305 305 306 306 306 307 308 309 309 310 311 312
315 315 315 315 314 315 316 315 315 315 315 315 313 313 313 312 312 312 312 311 310 307 307 307 307 307 307 306 305 305 305 305 305 305 305 304 304 304 303 303 303 303 303 304 304 304 304 304 304 304 304 304 304 305 304 305 306 307 308 309 309 309 309
315 315 315 316 316 316 316 316 315 315 315 315 314 313 313 313 313 312 312 311 309 307 307 307 307 307 307 306 306 305 304 305 305 304 304 304 303 303 303 303 302 302 302 303 303 304 304 304 304 304 304 304 304 304 304 304 305 306 307 307 307 307 308
317 316 317 317 317 317 316 316 315 315 315 315 314 314 313 313 313 312 312 311 309 307 307 307 307 307 306 306 305 305 304 304 304 304 303 303 302 302 302 302 302 301 301 301 302 302 303 304 304 304 304 304 304 303 303 304 304 304 305 305 306 306 306
318 317 317 317 317 317 317 316 316 315 315 315 314 314 314 314 313 312 312 311 309 307 307 307 307 307 306 305 304 304 304 303 303 302 302 302 302 301 301 301 301 301 301 301 301 301 302 302 302 303 303 304 303 303 303 303 303 303 304 304 305 305 305
319 318 318 318 318 318 317 317 316 316 315 314 314 314 314 314 313 313 312 311 309 307 307 307 307 306 305 304 303 303 302 302 302 301 301 301 300 300 300 300 300 301 301 301 301 301 301 301 301 301 302 302 303 303 303 303 303 303 303 304 304 304 304
320 319 319 319 318 318 318 317 316 315 314 313 313 313 314 313 313 313 312 311 309 307 307 307 307 306 304 303 303 302 302 301 301 300 299 298 298 298 298 299 299 299 300 300 300 301 301 301 301 301 301 301 302 302 302 302 302 303 303 303 303 303 303
320 320 320 319 318 317 317 316 315 313 313 313 313 313 313 313 313 312 312 310 308 307 307 307 306 305 304 303 302 302 301 300 299 297 296 295 295 295 296 296 297 297 298 298 298 299 300 300 300 300 301 301 301 301 301 301 301 302 302 302 302 302 303
319 320 320 319 319 318 315 314 314 313 314 314 314 313 313 313 313 312 310 309 308 308 307 307 306 304 303 302 302 301 299 297 296 296 296 295 295 295 295 295 295 294 294 294 294 295 296 297 298 299 300 300 300 300 300 300 300 301 301 301 301 302 302
315 318 319 319 319 319 316 315 315 314 314 314 314 313 313 313 313 312 310 309 308 308 307 306 305 303 302 302 301 298 296 295 295 295 295 295 295 295 295 295 295 294 293 293 293 293 293 294 294 295 297 298 299 299 300 300 300 300 300 300 300 301 301
311 314 317 318 319 319 317 316 316 314 313 313 313 313 313 313 313 311 310 309 308 307 306 305 304 303 302 300 298 296 295 295 295 295 295 295 295 295 295 295 295 295 294 294 295 295 294 294 294 294 294 294 295 296 298 299 299 299 300 300 300 300 300
309 311 314 316 317 317 317 316 315 314 313 313 313 312 312 313 312 311 310 309 307 306 305 304 303 301 299 297 295 295 295 295 294 295 295 294 294 295 295 295 295 296 295 295 294 295 295 295 295 295 294 294 294 294 295 296 297 298 299 299 299 299 300
308 310 312 314 315 316 315 315 314 314 313 312 312 312 312 311 311 310 309 307 306 305 304 302 301 298 296 294 294 294 294 294 294 294 294 294 294 294 295 295 295 295 295 295 294 295 296 296 296 295 295 295 295 294 294 294 295 295 297 298 298 299 299
309 310 311 312 314 314 314 314 314 314 313 312 311 311 311 310 310 309 308 307 306 304 302 300 297 295 294 294 294 293 293 292 292 293 293 293 293 294 294 294 294 295 295 295 295 295 295 295 295 295 295 295 295 295 295 295 295 295 295 295 296 297 297
309 310 311 311 312 313 313 314 314 314 312 311 311 311 310 309 309 308 307 306 305 302 300 297 294 294 294 294 293 292 292 292 292 292 292 292 293 293 293 293 294 294 294 294 294 294 294 294 294 294 294 294 295 295 295 295 296 295 295 295 296 296 296
309 310 310 311 311 312 313 313 313 313 312 310 310 309 309 309 309 308 306 305 303 300 296 294 294 295 294 293 292 292 292 292 292 292 292 292 292 293 293 293 293 293 293 293 293 293 292 292 292 292 293 293 294 294 294 295 295 295 295 295 295 295 295
309 310 310 310 311 312 312 312 313 312 311 309 308 308 308 308 307 306 304 303 300 297 295 294 295 295 294 293 292 292 292 292 292 292 292 292 292 292 292 292 292 292 293 293 293 292 291 291 291 292 292 292 292 293 293 293 294 293 293 293 293 293 293
308 309 310 310 310 311 311 312 312 311 310 308 307 306 306 305 304 304 303 300 298 296 295 295 295 295 294 293 292 292 292 292 292 292 293 293 293 293 292 292 291 292 292 292 292 291 291 290 290 291 291 291 291 291 292 292 292 293 293 293 293 292 292
308 308 309 310 310 311 311 311 310 309 308 306 305 304 304 304 303 302 301 298 296 296 296 296 295 294 293 292 292 292 292 292 292 293 293 293 293 293 293 292 292 291 291 291 291 290 290 289 290 290 290 290 290 290 291 291 291 291 292 292 292 292 292
307 307 308 309 310 310 310 309 308 307 305 304 302 301 303 303 302 300 298 296 296 296 296 296 295 294 293 293 292 292 292 292 292 292 292 293 292 292 292 292 292 292 291 290 290 289 289 289 289 289 290 290 290 290 290 290 290 290 291 291 291 291 292
307 307 308 309 309 309 309 308 307 305 303 302 301 301 301 301 300 298 297 296 296 296 296 295 294 293 293 293 292 291 291 292 292 292 292 292 292 292 292 292 292 291 290 290 289 289 289 288 288 288 288 289 289 289 289 290 290 290 290 290 290 290 290
306 307 307 308 307 307 306 306 304 303 302 302 301 300 299 298 298 297 297 297 297 296 295 294 293 293 292 292 291 291 291 291 291 291 292 292 292 292 292 291 291 291 290 289 289 288 288 287 287 287 288 288 288 288 288 288 289 289 289 289 290 290 290
306 306 307 307 306 305 304 303 303 302 302 300 298 297 297 297 297 297 297 297 296 295 294 293 292 292 292 291 291 290 290 290 290 290 291 291 291 291 291 291 290 290 289 288 287 287 287 287 287 287 288 288 288 287 288 288 288 288 289 289 289 289 290
306 306 305 304 304 303 302 302 301 300 299 298 297 297 297 297 297 297 296 295 294 293 293 292 292 292 291 291 290 290 290 290 290 290 290 290 291 290 290 290 289 288 288 287 287 287 287 287 287 288 288 288 287 288 288 288 288 289 289 289 289 289 290

ECMWFFLT1_925_thetae_024.txt.gz
Theta_e
318 320 320 320 321 319 319 319 320 320 320 320 320 320 320 320 320 320 319 318 317 317 317 317 318 318 319 319 320 321 321 321 322 323 323 324 325 325 325 326 325 325 327 328 328 329 331 332 329 329 329 328 329 330 330 330 331 331 332 332 331 331 331
319 319 318 319 320 320 319 319 318 319 320 320 319 318 317 317 317 317 316 315 314 314 313 313 314 314 315 316 317 318 319 320 320 320 321 321 321 322 323 324 324 325 326 327 326 326 328 330 330 330 329 328 328 329 329 329 329 330 330 330 330 330 330
318 318 317 319 320 320 320 319 318 318 318 318 317 316 315 315 315 315 315 314 314 313 313 313 313 313 314 314 315 315 316 317 317 318 319 319 319 320 320 321 321 322 323 324 324 324 326 327 328 328 327 327 327 328 327 326 327 327 326 326 328 329 328
318 317 317 320 320 320 320 318 318 318 318 317 315 315 315 315 315 315 315 314 314 313 313 314 314 314 314 313 314 314 314 314 314 314 315 316 316 316 317 318 319 319 320 321 320 321 322 323 323 324 324 325 325 325 324 324 326 326 325 324 326 328 328
319 318 317 319 320 320 319 318 317 317 317 317 316 315 315 316 316 316 316 315 314 314 314 314 313 314 314 314 314 313 313 313 313 313 313 313 313 313 314 314 315 317 317 318 318 318 319 320 320 320 321 321 321 322 322 323 324 324 324 324 326 328 328
320 318 317 319 319 318 318 318 317 316 317 317 317 316 316 317 317 316 316 316 315 314 314 313 313 313 314 314 314 313 313 313 313 313 312 312 312 313 312 312 312 313 314 314 315 315 316 317 318 319 319 319 319 320 319 319 321 320 321 322 323 325 325
321 319 317 318 319 318 318 319 317 316 316 317 317 317 317 317 317 317 317 316 315 314 313 313 313 313 313 313 313 313 313 313 313 312 312 312 312 312 312 312 311 312 312 312 312 313 313 313 315 316 317 316 317 317 317 316 317 318 319 320 320 322 323
321 319 318 317 319 319 318 319 317 315 316 316 316 318 318 317 318 318 318 317 315 314 313 313 313 313 313 313 313 313 313 313 312 312 312 312 312 311 311 311 311 311 311 311 311 312 312 312 312 313 314 313 314 315 316 316 316 316 317 318 319 319 319
321 320 319 318 320 320 319 319 318 316 316 316 317 318 318 318 319 318 318 317 316 315 313 313 313 313 313 313 313 313 313 312 312 312 312 312 312 312 311 311 311 311 310 310 310 311 311 312 311 311 312 312 312 313 314 314 315 316 317 317 318 318 318
321 320 320 321 322 321 320 319 319 318 317 316 318 319 318 318 319 318 318 318 316 315 313 313 312 312 312 312 312 312 313 312 312 312 312 312 312 311 311 311 311 311 310 310 310 310 310 311 311 312 311 312 312 312 312 313 314 316 317 316 317 317 317
322 321 321 322 323 322 321 320 319 320 318 318 319 319 317 318 319 318 318 318 317 315 313 313 312 312 312 312 312 312 312 312 312 312 311 312 311 311 311 310 311 310 310 310 310 310 310 310 311 311 311 312 312 312 312 312 313 314 315 315 315 315 316
322 322 321 322 323 322 321 320 320 321 320 319 318 317 317 318 319 318 318 318 317 315 314 313 312 312 312 312 312 312 311 311 312 311 311 311 311 310 310 310 310 310 309 309 310 310 310 309 310 310 310 311 312 312 313 312 312 313 313 314 315 315 315
322 322 322 322 323 323 322 321 320 321 321 320 318 317 317 318 318 318 318 318 317 316 314 313 313 312 312 312 312 312 311 311 311 311 311 310 309 309 310 309 309 309 308 308 309 309 309 309 309 308 309 310 310 311 311 311 312 312 313 313 313 313 312
323 322 322 322 323 323 322 321 321 321 321 320 319 318 317 317 318 318 318 318 317 316 314 313 313 312 312 312 312 312 311 311 311 311 311 310 309 309 308 308 308 308 307 307 307 308 308 309 309 308 308 308 309 309 310 310 311 312 312 312 312 313 313
322 322 322 322 323 322 322 321 321 321 322 321 320 319 318 318 318 318 318 317 317 316 314 314 313 312 312 312 312 311 311 310 310 310 310 309 309 308 308 307 307 307 307 306 307 307 307 308 308 307 308 308 308 308 309 309 309 310 311 311 311 312 312
321 322 322 321 322 322 322 322 322 322 322 322 321 320 319 318 318 318 318 317 317 315 314 313 313 312 312 312 311 311 310 310 310 309 309 308 307 307 307 307 307 307 306 306 306 306 306 307 307 307 308 308 308 308 308 308 308 308 309 309 310 310 310
322 322 322 322 322 322 322 322 323 322 321 321 321 321 319 319 319 318 318 317 317 315 314 313 313 312 312 312 311 311 310 309 309 309 308 308 307 306 307 307 307 306 305 305 306 306 306 306 306 306 307 307 308 308 308 308 308 308 308 309 309 309 309
323 323 323 322 322 323 323 322 322 322 321 321 321 320 320 319 319 319 318 317 316 316 314 314 313 312 312 311 311 310 310 309 309 308 308 307 306 306 306 306 305 304 304 305 305 305 306 305 305 305 305 306 306 307 308 308 308 308 307 308 308 308 309
324 324 324 323 323 323 323 323 323 322 322 321 320 320 319 318 319 318 318 318 316 315 314 314 313 312 311 311 310 310 309 309 308 307 307 306 306 305 305 304 304 304 303 303 304 304 304 305 305 305 305 305 305 305 306 307 307 307 307 308 308 308 308
324 324 324 324 323 323 323 323 323 323 322 321 320 320 318 318 318 317 317 317 316 315 315 313 312 312 311 310 310 309 309 308 307 307 306 305 304 304 303 302 302 302 302 302 303 303 303 304 304 305 305 305 305 305 305 306 306 306 306 307 307 307 307
322 323 323 324 324 323 323 323 323 322 321 321 320 320 319 318 317 317 317 317 316 315 314 313 312 312 311 310 310 309 308 307 307 306 305 304 303 302 301 301 301 300 301 301 300 300 300 300 302 303 303 304 304 305 305 305 305 305 305 305 306 306 306
317 318 320 321 322 323 323 322 322 321 321 320 320 320 319 318 317 317 317 316 315 314 313 312 312 311 310 310 309 308 308 307 306 305 304 303 302 301 300 300 300 300 299 297 295 294 294 295 296 298 300 301 302 303 304 304 304 305 305 305 305 305 306
312 314 315 317 319 320 321 321 321 320 320 320 319 319 319 318 318 317 316 316 315 313 312 311 311 310 309 309 308 307 306 305 304 303 302 302 301 301 300 300 300 299 298 296 295 294 294 294 294 294 296 298 299 301 302 303 303 304 304 304 305 305 306
311 311 313 314 316 317 319 321 320 320 320 319 318 319 318 318 318 317 316 316 315 313 311 310 310 309 308 307 307 306 304 303 302 301 301 301 301 300 300 300 299 299 298 298 298 298 298 296 296 295 294 295 295 297 298 300 302 302 303 304 304 304 305
309 310 311 313 314 316 317 319 320 320 320 319 318 318 318 318 318 317 316 315 314 313 311 310 309 308 306 305 304 303 303 302 301 301 300 300 300 300 299 299 299 299 299 299 299 298 298 298 297 297 296 296 295 295 295 296 297 299 301 302 303 304 304
309 310 311 312 313 315 317 317 318 318 319 319 318 318 317 317 317 317 316 315 313 312 310 309 308 306 304 303 302 301 301 301 300 300 299 299 299 299 299 298 298 299 299 299 298 298 299 300 299 299 298 298 297 296 296 295 295 296 297 299 300 301 302
310 310 311 312 313 314 315 316 317 318 318 319 318 317 317 317 317 316 315 314 312 310 308 307 305 303 302 301 299 299 300 299 299 299 299 298 298 298 298 298 298 298 299 299 299 299 300 299 299 299 299 299 299 298 298 298 297 296 296 296 297 298 299
310 311 311 312 313 314 314 315 316 317 317 317 317 317 316 316 316 315 314 312 310 308 306 305 303 301 301 299 297 297 299 299 298 298 298 298 298 297 297 298 298 298 298 299 299 298 298 298 297 298 298 298 298 298 298 299 298 298 298 297 297 298 298
310 310 311 311 313 314 314 314 315 316 316 316 316 316 316 316 315 314 312 310 308 306 303 302 301 299 298 296 295 297 299 299 298 298 298 297 297 297 297 297 298 298 298 298 298 297 296 295 295 296 296 297 297 297 297 298 297 297 297 297 298 298 298
310 310 310 311 312 313 314 314 315 315 315 315 315 314 315 315 314 312 309 308 307 304 300 298 297 296 295 295 296 298 299 298 298 298 297 297 297 297 297 297 297 297 297 297 297 296 295 294 294 295 295 296 296 296 296 296 296 296 295 295 295 295 296
310 310 310 310 311 312 313 314 314 314 314 314 314 314 315 314 311 309 308 306 305 301 296 295 295 295 295 294 295 297 298 297 297 297 297 297 297 297 297 297 296 295 296 297 296 295 294 293 293 294 294 294 295 295 295 296 295 295 295 294 294 294 294
309 310 310 310 311 311 312 313 313 313 313 313 313 314 313 311 308 307 306 304 303 299 295 294 295 295 295 294 293 295 296 296 296 296 296 296 297 297 297 297 296 295 295 295 294 293 292 292 292 292 293 293 293 294 294 294 295 295 294 294 294 294 294
309 309 309 310 310 310 311 311 312 312 312 313 313 311 310 308 306 304 303 301 300 298 296 295 295 295 294 293 293 293 294 295 295 295 296 296 296 296 296 297 297 296 294 293 293 292 292 291 291 291 291 292 292 292 293 293 293 293 293 293 293 293 294
308 308 308 309 309 309 310 310 311 311 311 310 310 308 307 305 303 301 300 299 298 297 296 295 295 294 293 293 292 292 292 294 295 294 294 295 295 296 296 297 297 296 294 293 292 292 291 291 290 290 290 290 291 291 291 291 291 291 291 291 292 292 292
307 308 308 308 308 309 310 310 310 310 309 307 306 305 304 302 301 299 298 298 297 296 295 295 294 293 292 292 292 291 291 292 293 292 293 294 295 296 296 296 296 295 294 293 292 291 291 290 289 289 289 289 289 289 289 289 289 289 290 290 290 291 291
307 308 308 308 308 309 309 309 308 307 306 305 304 302 301 299 298 297 297 297 296 295 295 294 293 292 292 292 291 291 290 290 291 291 293 294 295 295 296 295 295 294 293 292 291 290 289 289 288 288 288 288 288 288 288 288 289 289 289 290 290 291 291
307 307 307 307 308 308 308 307 306 305 304 303 302 300 299 299 298 298 297 297 296 295 295 294 293 291 291 291 290 290 290 291 291 292 292 293 294 294 294 294 293 292 291 290 289 289 288 288 288 289 289 289 288 288 288 289 289 289 289 290 290 291 291

ECMWFFLT1_925_thetae_027.txt.gz
Theta_e
321 322 322 322 321 320 320 322 322 322 322 322 322 322 322 321 321 321 320 319 318 317 317 318 318 319 320 320 321 322 322 322 323 325 325 325 326 326 326 327 327 325 325 328 329 329 330 332 332 330 329 329 329 329 329 329 330 329 328 330 331 331 331
321 321 320 321 320 320 321 321 321 321 321 321 321 320 319 319 319 318 317 316 316 315 314 314 315 316 318 319 319 320 321 321 321 322 323 322 322 323 324 325 326 325 325 327 328 326 326 328 330 331 330 328 328 327 328 328 330 329 330 330 331 330 330
321 319 319 321 320 320 320 320 320 320 320 320 319 317 317 318 317 317 316 315 315 315 315 315 315 316 317 317 318 318 319 319 319 320 321 321 320 320 321 322 322 323 325 326 326 325 325 326 327 329 328 329 330 327 325 325 327 328 328 329 329 328 329
321 319 319 321 320 321 320 319 319 319 319 318 317 317 317 317 317 317 316 315 315 315 316 317 316 317 317 317 317 317 317 317 317 318 318 318 318 318 318 320 320 320 321 322 322 322 322 323 324 326 326 327 329 327 324 322 321 323 323 325 327 326 327
321 320 321 321 320 321 320 319 319 320 319 317 317 317 318 318 318 317 317 316 316 316 316 316 316 317 317 317 317 317 317 317 317 317 317 317 317 316 315 316 317 318 318 319 320 320 320 320 321 321 320 320 321 322 323 323 323 324 324 325 326 326 327
321 320 321 322 321 320 320 319 319 319 319 318 317 317 318 318 319 318 318 318 316 316 315 316 316 317 317 317 317 317 316 317 316 316 316 316 316 316 316 315 315 316 316 316 316 316 316 317 318 318 318 317 317 318 318 320 322 322 322 323 322 323 325
321 320 320 321 321 320 320 320 319 319 320 319 318 318 318 318 319 318 319 318 317 316 316 316 316 316 317 316 316 317 317 316 317 316 316 316 316 316 316 315 314 315 315 314 315 315 315 315 315 315 316 316 316 316 316 316 316 317 318 320 320 320 322
322 321 319 320 321 320 319 320 320 319 319 319 319 319 319 318 319 319 319 318 317 316 316 316 316 316 316 316 315 316 317 316 316 316 315 315 315 315 315 315 314 314 314 314 314 314 314 315 314 314 314 314 314 315 316 316 315 315 316 317 318 319 319
322 321 319 318 320 320 319 320 320 318 318 319 319 319 320 319 319 319 319 319 318 317 316 316 316 316 315 316 316 316 316 315 315 316 316 316 315 315 315 314 315 314 312 313 313 313 314 314 314 314 314 314 314 314 314 315 315 316 317 316 317 318 318
322 322 320 318 320 321 320 320 320 319 318 318 319 320 320 318 319 320 319 319 318 317 316 316 316 316 315 316 316 316 316 315 316 316 316 316 315 315 315 314 315 314 312 312 313 312 313 313 313 314 314 314 314 313 313 313 314 315 316 316 316 316 316
324 323 322 320 320 322 321 320 320 320 319 319 319 320 321 319 320 320 319 319 319 318 316 315 315 315 315 315 316 316 316 315 315 315 315 315 315 315 314 313 314 314 312 312 312 312 312 313 313 313 313 314 314 314 314 314 314 314 314 314 315 315 316
325 324 322 321 322 323 322 321 320 320 320 319 319 321 321 319 320 320 319 319 319 318 317 316 316 315 315 315 315 315 315 314 315 315 315 315 314 314 314 313 313 313 312 311 312 313 313 312 312 312 311 312 313 314 315 314 314 314 313 314 314 314 314
325 324 323 322 322 323 323 322 321 320 321 320 320 321 321 319 320 320 319 319 320 319 317 316 316 315 315 315 314 315 314 314 315 315 314 314 313 313 314 312 312 312 311 310 310 312 311 311 312 311 311 311 311 312 313 314 313 314 313 313 313 313 313
324 324 323 323 323 323 323 323 322 321 322 321 320 321 321 319 320 320 320 320 320 319 318 316 316 315 315 316 315 315 315 314 314 314 314 314 312 312 312 312 311 311 310 310 310 310 310 310 311 311 311 311 311 311 312 312 313 313 313 312 313 313 313
323 322 323 322 323 323 322 323 324 322 322 322 321 321 321 320 320 320 320 320 320 320 318 317 316 315 315 315 315 316 315 314 313 314 314 313 312 312 312 310 310 311 310 310 309 309 309 309 309 309 310 310 310 311 310 311 311 312 312 311 311 311 312
322 322 322 322 322 322 321 321 323 323 323 323 323 322 321 320 320 320 320 320 320 320 319 318 317 316 315 315 315 315 315 314 313 314 313 313 312 312 311 311 311 311 310 310 310 309 309 309 309 309 309 309 309 310 310 310 311 311 311 311 311 311 311
323 322 323 323 323 322 321 320 321 323 323 323 323 323 322 320 320 321 320 320 321 320 319 319 318 317 315 315 315 315 315 313 313 313 313 312 311 311 311 311 311 310 310 309 309 309 309 309 309 308 308 308 308 309 310 310 311 311 312 311 311 311 310
324 324 324 324 324 323 322 322 322 322 322 323 324 323 323 321 320 321 321 321 320 320 320 319 318 317 316 315 315 315 314 314 313 313 313 312 311 311 310 310 310 309 309 308 308 309 309 308 308 307 307 307 307 307 308 308 309 310 311 311 311 310 310
324 325 325 325 325 323 323 323 323 322 322 323 323 323 323 322 321 321 321 321 321 320 320 319 318 317 316 315 315 315 314 314 313 313 312 311 310 310 310 310 309 308 308 307 307 308 307 307 307 307 307 307 307 307 307 307 308 308 308 309 309 309 310
323 325 325 324 324 324 323 324 324 323 323 323 323 323 323 323 322 322 322 321 321 321 320 319 318 317 317 316 315 315 315 314 313 312 311 311 310 310 309 308 308 307 307 306 306 306 306 306 306 306 306 307 307 307 307 308 308 308 308 308 308 309 309
320 321 322 322 323 323 324 323 323 322 323 324 324 323 323 323 322 322 322 321 321 321 320 319 318 317 317 316 315 315 314 314 313 312 311 310 309 309 308 307 306 306 305 305 305 304 302 301 301 302 302 303 304 305 305 306 306 307 307 308 307 308 308
314 315 317 319 321 322 323 322 322 321 321 323 323 323 323 323 322 322 322 321 321 321 320 319 318 318 317 316 316 315 314 313 312 312 311 310 309 308 307 305 305 305 304 303 302 300 297 295 295 296 297 299 300 302 303 304 304 305 306 307 307 307 307
310 311 313 314 316 318 320 321 322 322 321 322 322 322 322 322 322 323 322 321 321 321 319 318 318 317 317 316 315 314 314 313 312 311 311 309 308 307 306 305 305 304 303 301 300 299 298 297 297 296 296 297 298 299 301 302 303 304 305 305 305 306 306
309 310 310 311 312 313 315 317 320 321 321 320 321 321 322 322 322 322 322 321 320 320 318 318 318 317 316 315 314 314 313 312 311 310 309 307 306 306 305 305 304 304 302 302 301 301 301 300 299 298 297 297 297 297 298 299 300 301 303 303 304 304 305
309 309 309 310 311 311 312 313 316 319 319 320 320 320 320 321 321 321 321 320 320 319 318 317 317 316 315 313 313 313 312 310 309 308 306 306 305 305 304 304 304 303 302 302 302 301 301 300 299 299 299 299 299 298 298 297 298 298 299 301 302 302 303
309 309 310 310 311 312 312 312 313 315 317 318 319 319 319 320 320 320 320 320 320 318 318 317 317 315 313 312 311 311 310 308 307 306 305 305 304 304 303 303 303 302 302 301 301 301 301 302 302 302 301 301 301 300 300 299 298 298 298 299 299 300 301
309 309 310 310 311 312 312 312 313 313 315 315 317 317 318 319 319 319 319 320 319 319 318 317 316 314 312 310 310 309 308 306 305 305 304 304 304 303 303 303 302 301 301 301 301 301 302 302 302 302 302 302 302 301 301 301 301 300 299 299 299 299 300
309 309 309 310 310 311 311 312 313 313 314 315 315 316 316 317 318 318 318 319 319 318 317 316 315 313 311 309 308 307 305 304 303 303 303 303 303 303 302 302 301 301 301 301 301 301 301 301 301 301 301 300 300 301 301 301 301 301 300 300 299 300 300
310 310 310 310 310 310 311 312 313 313 313 313 314 315 315 316 317 317 318 319 318 316 314 313 312 311 310 308 306 305 303 303 303 303 303 303 303 302 302 301 301 301 301 301 301 300 299 299 299 299 299 299 299 299 300 300 300 300 300 300 299 300 300
310 310 311 310 310 311 311 312 313 313 313 313 313 314 314 315 316 316 316 317 315 313 311 309 309 309 308 306 303 302 303 303 303 302 303 302 302 301 301 301 300 301 301 300 299 299 298 298 298 298 298 298 298 298 299 299 299 299 298 298 298 298 298
309 310 310 310 311 311 311 312 312 313 313 313 313 313 313 313 314 315 315 315 313 310 307 306 306 305 303 301 301 301 302 303 302 302 302 301 301 300 300 300 300 299 299 299 298 298 298 297 297 296 297 297 297 297 297 298 298 298 298 298 297 297 297
309 309 310 310 310 311 311 312 312 313 314 313 313 313 312 312 314 314 313 311 309 308 305 302 300 300 298 298 299 300 300 300 300 299 299 299 299 299 299 299 298 298 298 298 298 298 297 295 295 295 296 296 296 296 296 296 296 297 297 297 297 297 297
309 310 310 310 311 311 311 312 312 312 313 312 312 312 312 313 312 310 308 307 306 305 302 298 296 296 296 297 298 298 297 297 297 297 298 297 297 297 297 297 298 298 298 298 297 296 295 294 293 294 294 295 295 294 294 294 294 294 294 294 294 295 295
309 310 310 310 310 311 311 311 311 311 311 311 312 312 312 311 309 305 304 304 303 300 298 295 295 296 296 295 295 295 295 296 296 296 296 296 295 296 296 297 298 298 297 296 295 294 293 293 292 292 292 293 293 293 293 292 292 292 292 292 292 292 293
309 309 310 310 310 310 310 310 310 311 311 311 312 312 310 307 305 303 301 300 299 296 295 296 295 295 294 294 293 292 293 294 294 293 293 294 295 296 297 298 298 298 296 295 294 293 292 292 291 290 291 291 291 291 290 290 290 290 290 290 291 291 292
309 309 309 309 309 309 309 309 309 310 311 311 311 311 308 305 304 302 300 299 297 296 295 295 294 293 293 293 292 291 291 291 290 291 292 295 296 297 297 298 298 297 296 295 294 293 292 291 290 290 290 290 290 289 289 289 289 289 290 290 290 291 291
308 308 308 308 308 308 308 308 309 310 310 310 310 308 306 303 302 301 299 298 297 296 295 293 293 292 292 291 291 291 291 291 292 293 294 295 296 297 297 297 296 295 294 293 292 292 291 290 290 290 290 290 290 290 290 290 290 290 290 290 290 291 291

ECMWFFLT1_925_thetae_030.txt.gz
Theta_e
322 322 322 322 321 320 321 322 321 322 322 322 322 321 321 320 320 319 318 317 317 317 316 317 317 318 319 320 320 321 321 322 323 324 326 326 326 326 326 326 325 324 325 327 328 328 331 332 331 331 330 328 328 329 329 329 328 329 329 328 328 329 330
322 322 322 322 321 321 322 321 321 321 321 321 320 320 319 318 317 317 316 316 315 315 315 315 316 316 318 318 319 320 320 320 321 322 322 322 322 324 324 325 326 326 325 326 327 325 328 332 333 332 330 328 328 328 328 328 328 328 328 328 329 329 330
322 321 322 321 321 321 321 321 321 321 320 319 318 318 318 317 316 316 316 315 316 316 316 316 316 316 316 317 317 318 319 318 318 319 319 319 319 319 320 321 322 324 325 327 327 325 326 329 330 331 329 329 330 328 325 325 326 327 326 326 327 327 329
321 320 321 321 321 321 321 321 320 320 320 318 318 318 318 317 317 317 316 316 317 317 317 317 317 317 317 317 318 317 318 318 318 318 317 318 317 316 317 317 317 318 320 322 322 322 323 324 325 326 324 326 329 327 324 322 320 322 321 319 318 318 320
320 319 322 321 321 322 321 320 320 320 319 318 317 318 318 318 317 317 317 316 316 316 317 317 317 318 318 318 318 318 318 317 318 317 317 317 317 316 315 316 316 316 316 316 317 316 317 318 320 321 319 319 322 322 323 323 320 319 319 317 315 313 315
320 319 322 321 321 322 320 320 320 320 319 318 318 318 318 319 318 318 318 317 316 315 315 316 316 317 317 316 317 317 316 316 316 316 316 316 317 317 316 315 316 316 314 314 315 315 314 315 316 318 316 316 317 317 318 321 319 318 319 318 318 318 318
321 320 322 321 321 322 321 320 320 320 320 318 318 319 318 319 319 319 319 318 316 315 315 315 316 317 317 317 317 317 316 317 317 316 316 316 315 316 316 314 314 314 313 314 315 314 315 315 314 315 315 314 316 315 315 316 316 318 320 318 318 320 320
321 321 322 322 321 321 321 321 320 320 320 319 319 319 318 318 319 319 319 318 317 316 316 315 316 316 317 317 316 317 317 316 316 315 315 315 315 315 315 315 314 312 312 313 313 313 314 314 314 314 315 316 317 316 315 314 314 316 317 317 318 319 319
321 321 321 322 322 321 320 321 320 319 320 320 319 320 319 318 319 320 319 319 317 317 316 316 317 316 316 317 316 316 316 315 316 317 316 315 315 315 313 315 315 312 311 313 312 312 313 313 313 315 315 315 316 316 316 316 316 316 315 314 316 316 316
322 321 320 320 321 320 320 320 321 320 319 320 320 320 320 318 319 320 320 319 318 317 316 316 317 316 315 317 317 315 316 316 317 317 316 316 316 315 314 314 316 312 310 313 312 311 312 312 313 314 314 314 315 316 317 317 317 315 314 313 314 314 315
322 322 320 320 320 321 320 320 321 320 319 319 320 320 320 319 319 320 320 320 319 318 317 316 317 316 314 317 317 316 317 317 316 315 315 316 316 315 314 313 315 314 311 312 313 312 312 312 312 312 312 312 313 315 316 317 317 315 313 313 313 313 313
323 323 322 320 320 321 322 320 321 321 319 319 319 320 321 320 320 320 320 320 320 319 318 316 317 315 314 316 315 315 317 315 315 316 315 315 314 315 314 312 313 314 311 311 312 313 313 312 311 311 310 310 311 312 313 315 317 315 313 313 313 313 313
324 324 324 322 321 321 322 321 321 321 320 320 319 320 321 321 320 320 320 320 320 320 318 317 317 315 315 316 314 315 316 314 315 317 315 313 314 314 314 313 312 311 309 309 311 311 311 311 312 311 311 311 311 311 311 312 314 314 312 312 312 312 312
326 325 323 322 322 321 322 321 321 321 320 320 320 320 321 321 321 321 321 320 320 321 319 318 317 316 315 316 314 314 315 314 314 316 315 314 314 313 313 313 312 311 310 310 310 310 309 310 310 311 311 312 311 311 311 311 312 313 311 311 311 311 311
325 325 324 322 321 321 321 321 321 321 321 321 320 320 321 322 322 321 321 321 320 320 321 319 317 317 316 316 315 315 316 315 314 314 315 314 313 313 313 311 311 312 311 309 309 309 309 308 308 309 310 310 310 310 310 310 311 311 311 311 311 310 310
325 324 323 322 321 321 321 321 320 322 322 321 321 321 321 321 322 321 320 321 320 321 321 320 318 317 316 316 316 316 316 316 314 313 315 315 313 313 312 310 310 311 311 310 310 310 309 308 309 309 309 309 308 308 309 309 310 311 311 312 311 312 311
325 324 322 322 322 322 321 321 321 321 321 322 321 322 322 321 321 321 321 321 321 321 321 320 319 318 317 317 316 317 317 316 315 314 315 315 314 313 313 311 311 312 311 311 310 310 309 310 310 309 308 308 307 307 308 308 309 310 311 311 311 311 311
324 324 323 322 322 323 323 323 322 321 320 321 321 322 322 322 321 321 321 320 321 321 321 321 320 319 318 317 317 316 317 316 315 314 315 314 313 313 313 312 312 312 311 310 310 309 309 309 309 308 308 307 307 307 307 306 307 307 308 309 308 308 308
325 325 324 323 322 323 324 323 323 323 321 321 322 322 323 322 322 321 321 321 321 321 320 320 320 320 319 318 317 316 316 316 315 314 315 314 313 312 312 312 311 311 310 309 309 309 309 308 308 307 307 307 307 307 307 307 307 307 308 308 308 308 308
322 323 323 323 322 323 323 323 324 324 322 322 322 322 322 321 321 320 320 320 321 320 321 321 320 320 319 318 318 317 317 316 316 315 314 314 313 312 311 311 311 310 309 309 308 308 308 307 307 306 306 305 305 305 305 305 306 306 307 307 308 308 308
318 319 320 321 321 322 322 323 323 323 322 322 322 322 322 321 320 320 320 321 320 321 321 321 320 320 320 319 318 317 317 316 316 315 314 314 313 311 311 310 310 309 308 308 307 307 307 306 304 302 300 300 300 300 301 302 302 304 304 305 306 307 307
314 315 315 318 320 321 322 322 323 322 322 321 322 322 322 322 322 321 321 321 321 321 320 320 320 320 320 319 318 318 317 316 316 315 314 313 312 311 310 309 308 307 307 306 306 306 305 303 300 298 297 295 296 298 300 300 302 303 303 304 304 305 306
311 311 312 314 316 318 320 321 322 321 320 321 322 322 322 322 322 321 321 322 321 321 320 320 320 320 320 319 318 318 317 317 316 315 314 312 311 310 310 308 307 306 306 305 305 304 303 302 300 299 298 297 296 297 298 298 299 300 301 302 302 303 303
309 310 310 310 311 312 314 317 319 320 320 320 321 321 321 321 321 321 321 322 321 321 320 321 320 320 320 319 318 318 318 317 316 315 313 312 311 310 308 307 306 306 306 305 304 303 303 302 301 300 299 299 298 298 298 298 298 298 299 299 300 300 301
309 309 309 310 310 310 311 312 314 316 318 319 319 320 321 321 321 322 322 322 322 322 321 321 320 320 319 318 318 318 317 316 315 314 313 312 310 309 307 306 306 306 305 304 304 303 303 302 301 301 301 301 301 301 300 300 300 299 299 299 299 299 299
309 309 309 310 310 310 311 311 312 312 314 315 317 318 320 320 320 321 321 321 321 321 321 321 321 320 320 318 317 317 315 315 314 313 311 310 308 307 306 306 305 305 304 304 303 302 302 302 302 302 303 303 302 302 302 301 301 301 300 299 299 299 300
309 309 309 309 310 310 310 311 311 312 312 313 314 315 317 318 318 319 319 319 320 320 321 321 321 320 319 318 316 315 314 313 312 311 309 308 307 306 305 305 305 304 303 303 302 301 302 302 303 303 303 302 302 302 302 302 302 301 301 301 300 300 300
309 310 310 309 309 310 310 310 310 311 312 312 312 313 314 315 316 317 318 319 319 319 319 320 320 319 318 317 316 315 313 311 310 308 307 306 306 305 305 304 304 303 303 302 302 301 301 301 302 301 301 300 300 300 300 300 300 300 301 301 301 301 301
310 310 310 310 310 310 310 310 311 311 312 312 312 312 313 313 314 315 316 317 318 318 318 319 319 318 317 316 314 312 310 308 307 306 305 305 304 304 304 304 303 303 302 302 302 302 301 301 301 300 299 298 298 299 299 299 299 299 299 299 300 300 300
309 309 310 310 310 310 310 310 311 311 311 312 313 313 312 312 313 314 314 316 317 317 316 317 317 316 314 313 311 309 307 306 305 304 304 304 304 304 303 303 303 302 302 302 302 301 301 300 299 298 298 298 298 298 298 298 298 298 298 298 298 298 298
308 308 309 309 309 310 310 310 311 311 311 312 312 313 313 313 313 313 314 315 315 315 315 314 313 312 311 310 308 307 306 305 304 304 304 304 303 303 302 302 301 301 301 301 301 300 300 299 298 298 298 298 297 297 297 297 297 297 296 297 297 297 297
307 308 309 309 309 310 310 310 311 311 311 312 312 312 313 312 312 313 313 313 313 313 313 311 309 309 308 307 306 304 304 304 303 302 301 301 300 300 300 300 299 299 299 299 299 299 298 298 297 297 296 296 296 296 296 296 296 295 295 295 295 295 295
308 308 308 309 310 310 310 311 311 311 311 312 312 312 313 312 311 310 310 310 310 310 310 307 305 306 306 305 304 303 302 301 299 298 298 298 298 297 297 297 297 297 298 298 298 297 297 297 296 295 295 294 294 295 295 295 294 294 293 293 292 293 292
307 308 308 309 310 310 310 311 311 311 311 311 311 312 312 311 309 307 306 307 307 306 306 304 302 302 303 303 302 301 299 298 297 297 297 297 296 295 295 295 296 297 298 298 297 296 296 295 295 294 293 293 292 292 292 292 292 291 291 291 291 291 291
307 307 308 308 309 310 310 310 310 310 310 310 311 312 311 308 306 305 303 304 304 302 301 301 300 299 299 299 299 300 300 298 296 295 294 293 293 294 295 296 297 298 297 297 296 295 295 294 293 292 292 291 291 291 291 290 290 290 290 290 290 290 290
307 308 308 308 309 309 310 309 308 309 309 309 311 311 309 306 304 302 300 300 300 298 298 298 298 298 298 299 299 299 298 295 293 291 291 292 293 295 296 297 297 297 296 295 295 294 294 293 292 292 292 291 291 291 291 291 290 290 290 291 290 290 290
308 308 308 308 308 309 308 308 308 308 309 309 311 310 307 305 303 301 299 297 297 296 296 296 297 298 298 297 295 294 292 292 292 293 293 294 294 295 296 296 297 296 296 295 294 293 293 292 292 292 292 292 292 291 291 291 291 291 291 291 291 291 291

ECMWFFLT1_925_thetae_033.txt.gz
Theta_e
322 321 321 321 321 320 320 321 321 321 321 320 320 319 319 319 318 317 316 317 317 315 314 316 317 317 319 320 320 320 322 323 325 326 326 326 325 325 325 326 324 324 325 327 328 329 332 334 331 329 328 328 328 329 329 328 327 328 328 328 329 327 329
322 321 321 320 320 320 320 322 322 321 321 320 319 318 317 317 317 316 315 315 315 315 314 314 315 316 316 318 318 318 319 320 321 321 322 322 322 322 324 326 325 325 326 327 326 325 328 333 334 332 329 327 327 327 326 328 328 325 323 324 327 327 328
321 321 320 320 320 321 321 321 320 319 319 318 317 316 316 315 314 314 315 316 316 316 316 315 315 316 315 316 317 316 316 317 318 318 318 317 317 317 319 322 324 324 324 324 324 324 326 328 329 329 325 324 328 327 325 326 325 323 320 320 323 325 327
321 321 320 320 320 321 321 320 319 318 318 317 317 316 316 316 314 314 315 316 317 316 316 316 317 318 317 316 317 316 317 316 315 316 316 315 316 316 316 317 318 319 318 318 318 319 320 321 323 323 317 317 323 324 323 323 321 320 320 319 318 318 320
321 321 320 320 321 321 319 320 320 318 317 317 317 317 316 315 315 316 315 315 316 317 317 317 317 317 316 317 317 317 317 316 314 316 316 314 314 315 315 315 314 314 315 314 314 314 315 315 316 317 314 313 317 317 317 320 319 318 319 318 315 315 315
321 321 320 319 320 320 318 320 320 318 317 316 317 317 316 315 315 316 316 314 314 315 316 317 317 315 314 314 314 313 314 314 313 315 316 316 315 314 314 314 313 313 314 314 315 314 314 313 313 313 313 313 315 314 313 315 316 317 318 318 320 319 318
320 321 320 320 321 319 319 320 319 318 317 316 317 317 316 316 316 317 318 314 312 312 312 314 317 316 316 314 312 314 316 315 312 311 313 315 315 313 313 313 313 313 314 313 313 315 314 314 314 314 313 314 314 313 312 313 314 314 315 317 319 319 317
320 321 320 320 321 320 319 320 320 319 319 317 317 317 316 316 318 318 319 316 312 309 309 312 317 317 317 316 313 313 315 313 311 309 310 312 314 314 314 313 311 311 313 312 312 314 314 313 314 314 314 316 317 316 313 313 314 313 313 314 315 315 313
320 321 321 320 321 321 320 320 320 319 319 318 318 318 317 316 318 319 318 318 314 311 309 312 316 316 316 316 313 312 313 313 314 313 309 310 313 315 315 313 310 309 311 311 309 310 312 313 314 313 312 314 317 318 317 318 316 314 313 313 313 313 312
319 321 321 321 321 321 320 319 320 320 320 319 319 319 317 316 318 319 318 318 316 313 312 313 316 316 316 317 314 313 314 316 318 316 313 311 312 314 314 314 312 309 309 309 308 307 310 312 313 312 312 312 314 317 318 320 319 315 313 312 312 312 311
320 321 321 321 321 321 321 320 319 320 320 320 319 319 319 317 318 318 318 319 318 316 313 314 317 316 315 317 316 313 315 316 316 316 315 314 312 312 313 314 313 311 309 310 311 309 309 310 310 310 310 310 312 314 315 317 319 315 311 311 311 311 312
321 320 320 322 321 320 321 321 320 319 319 320 320 319 320 319 318 318 319 319 318 318 316 313 316 316 314 317 316 314 316 315 314 315 315 315 312 311 312 313 314 312 310 311 313 311 310 309 309 309 309 309 310 311 311 313 316 314 310 311 311 309 309
322 321 319 321 322 320 320 320 321 320 319 320 319 320 320 319 319 318 319 319 319 319 318 315 315 315 314 316 316 315 317 315 313 315 315 314 313 312 312 312 313 311 309 310 312 311 311 310 310 310 310 310 310 311 310 310 313 313 310 310 310 308 307
323 323 322 321 322 320 320 320 321 321 320 319 319 319 320 320 320 319 318 319 319 319 320 318 316 315 314 315 315 314 316 314 314 316 315 313 313 313 311 312 312 310 308 308 309 309 310 309 310 310 310 311 311 311 311 310 311 310 309 308 308 308 309
324 324 323 322 322 321 321 321 321 321 321 320 320 319 320 320 320 320 320 320 320 320 320 319 318 316 315 315 315 314 315 314 314 316 316 314 313 313 312 313 312 311 309 308 307 308 309 308 308 309 309 310 309 309 309 309 309 309 308 308 309 309 310
325 325 323 322 322 321 321 321 321 321 320 320 321 321 321 321 321 321 320 320 320 320 320 320 319 318 316 315 315 315 315 315 315 315 315 315 314 313 312 312 311 311 311 309 307 307 308 308 308 309 309 308 307 307 307 308 308 309 309 309 309 308 308
323 324 324 323 323 322 321 322 321 321 320 320 321 321 322 322 322 321 320 320 320 320 320 320 320 319 318 317 316 315 315 315 315 315 314 315 314 313 312 311 310 311 311 309 308 308 308 309 309 309 308 308 307 307 307 307 307 307 307 307 307 306 307
322 323 324 323 323 322 322 323 322 321 320 321 321 322 322 322 322 322 320 320 319 320 320 320 319 318 318 317 317 316 316 316 316 316 314 314 315 314 313 312 310 310 311 310 310 309 309 309 309 308 307 307 307 307 306 306 306 306 306 307 307 306 307
323 323 323 323 322 322 321 321 321 321 321 320 320 321 320 320 321 321 321 319 320 320 320 320 320 319 318 318 317 316 316 316 316 316 315 314 315 314 313 313 312 311 311 311 310 309 309 309 309 307 306 306 305 305 305 306 306 306 305 305 305 305 305
323 324 324 324 323 322 321 321 321 322 322 321 321 320 320 320 320 321 321 321 320 319 319 319 320 319 319 318 318 317 317 316 316 316 316 314 314 314 313 313 312 312 311 310 309 308 308 308 308 307 306 305 304 303 303 303 302 302 302 302 303 303 303
320 320 321 322 322 322 321 321 321 321 322 321 321 321 322 321 321 321 322 321 320 319 319 319 319 320 319 319 318 318 317 317 316 316 316 315 314 314 313 312 312 311 311 310 309 308 308 307 307 306 304 302 300 299 297 297 298 299 300 301 302 302 302
315 314 315 317 319 320 320 320 320 320 321 321 321 321 322 322 322 321 321 321 320 319 319 319 320 320 320 319 319 319 318 317 317 316 316 315 314 314 313 311 311 310 310 309 308 307 306 306 306 305 303 300 298 297 296 296 296 297 298 299 299 299 299
310 311 312 313 314 316 316 317 318 318 318 319 320 320 321 321 322 322 322 322 321 320 320 320 320 320 321 319 319 320 319 318 316 316 316 315 314 313 312 311 310 310 310 309 307 306 306 306 305 304 302 301 299 298 298 298 298 298 298 298 298 298 298
309 309 310 310 310 311 312 313 315 316 317 318 319 320 320 320 320 320 321 321 321 321 321 321 321 321 321 320 320 320 319 318 317 317 316 315 314 312 311 311 311 310 309 308 306 306 305 305 304 303 301 300 300 301 301 300 300 300 300 299 299 299 299
308 309 309 309 310 310 310 311 312 314 315 316 318 319 320 320 319 319 320 320 321 321 321 321 321 321 321 321 320 320 319 318 317 316 316 315 314 312 311 310 310 309 308 307 306 305 305 304 303 302 301 301 302 302 301 301 301 301 300 300 300 300 300
308 309 309 309 309 309 309 309 310 311 312 313 314 315 317 319 319 319 319 319 320 320 321 321 321 321 321 321 320 320 318 317 317 316 315 314 313 312 311 310 309 308 306 306 305 305 304 303 302 302 302 303 303 302 302 301 301 301 301 300 299 299 300
308 309 309 309 309 309 309 309 309 310 310 311 311 312 313 315 316 317 318 319 319 320 320 320 320 320 320 321 321 319 317 315 316 316 314 314 313 311 310 309 308 306 305 305 304 303 303 302 302 302 302 303 302 302 301 300 299 300 300 299 299 299 300
309 309 309 310 309 308 308 308 309 309 310 310 310 310 311 311 312 312 314 316 318 319 319 319 318 319 319 320 320 318 315 314 314 314 313 312 311 309 308 307 306 305 305 304 303 303 302 301 301 302 302 302 301 300 299 298 298 298 298 298 298 299 298
308 309 309 310 309 310 309 309 309 309 310 310 311 311 311 311 311 311 311 313 315 317 319 318 318 318 319 320 319 316 314 313 313 312 310 309 308 306 306 306 305 305 304 304 303 302 302 301 302 301 301 301 300 299 298 297 297 297 297 297 298 298 297
308 308 308 309 309 309 310 310 310 310 310 310 311 310 311 312 312 313 312 312 313 315 317 318 317 317 318 318 317 314 313 312 311 309 307 306 306 305 305 305 305 304 303 303 302 302 301 302 301 301 300 299 299 298 298 297 297 297 297 297 297 297 296
307 307 307 308 308 309 309 309 310 310 310 310 310 311 311 312 312 312 312 312 313 315 316 316 316 317 317 317 315 313 310 309 308 306 306 305 305 304 304 304 303 303 303 302 302 302 302 301 300 299 298 298 298 297 297 296 296 296 296 296 296 296 295
306 307 307 307 307 307 308 308 309 309 309 310 310 311 311 312 311 311 311 312 312 313 314 314 314 315 315 314 312 311 308 307 305 305 304 303 303 302 301 301 300 300 300 299 299 300 300 299 298 298 297 296 296 295 295 295 294 294 293 293 293 293 292
306 306 307 307 307 308 308 309 310 310 310 310 311 311 311 311 311 310 310 311 312 312 312 312 311 311 311 311 309 308 306 305 304 302 301 301 300 299 298 297 297 297 296 297 297 297 297 297 296 296 295 294 294 293 293 293 292 292 291 291 291 291 291
306 306 306 307 307 308 308 309 310 310 310 310 310 311 310 310 309 309 309 309 310 309 310 310 308 308 308 307 306 305 304 303 301 300 299 299 298 297 296 296 296 296 296 297 297 297 296 296 295 295 294 293 293 292 292 292 291 291 291 291 291 291 290
306 306 306 306 307 307 307 308 309 309 310 309 310 310 309 309 308 307 307 307 307 307 306 306 305 304 305 305 303 302 302 300 299 299 298 297 295 294 294 296 296 297 297 297 296 296 295 295 294 293 293 293 292 292 292 291 291 291 291 291 291 291 291
305 306 306 306 307 307 307 307 308 309 309 309 309 309 308 307 307 306 305 304 304 303 302 302 302 301 301 302 301 301 301 300 299 298 296 294 293 293 295 296 296 296 296 296 296 296 295 294 293 293 293 292 292 292 292 292 292 292 292 291 291 291 291
306 306 306 306 307 307 307 307 307 308 309 308 309 308 307 306 306 305 303 301 300 300 300 299 299 299 300 300 300 299 298 296 295 295 294 294 294 294 295 295 295 295 296 295 295 294 294 293 293 293 293 293 292 292 292 292 292 292 292 292 291 291 291

ECMWFFLT1_925_thetae_036.txt.gz
Theta_e
320 320 320 322 323 322 322 321 320 319 319 319 319 319 318 317 317 318 317 316 315 317 318 319 320 321 321 321 323 324 325 326 327 327 326 325 325 325 326 327 326 325 326 327 327 328 332 333 330 329 328 327 328 328 329 329 328 327 327 328 329 330 331
320 321 322 323 322 321 320 320 319 319 318 318 318 318 317 316 315 316 315 314 313 314 315 316 317 319 319 319 321 321 322 324 325 324 323 322 323 324 325 325 324 325 326 326 325 325 328 332 332 331 325 322 326 326 326 328 328 328 328 327 327 328 328
320 321 322 321 321 320 320 320 320 320 318 316 316 316 316 315 315 315 315 314 314 314 314 314 314 316 317 317 317 319 320 321 321 319 318 317 319 321 324 325 325 325 324 322 323 324 325 326 327 326 319 318 324 325 322 325 326 327 327 327 328 328 326
320 321 321 319 320 321 321 321 320 319 317 314 313 313 314 314 315 316 315 315 316 316 316 315 314 315 316 315 315 316 318 318 318 317 316 316 316 317 319 321 320 319 317 316 317 319 320 320 322 320 314 313 319 318 317 320 322 322 323 324 324 323 321
320 320 319 319 321 321 320 320 319 317 316 315 314 313 312 312 314 314 315 315 316 317 316 316 315 314 315 315 315 315 315 316 315 315 315 315 315 315 315 315 315 315 314 314 314 314 314 315 316 315 312 313 316 314 313 315 317 319 320 320 318 316 317
321 319 318 320 321 321 319 318 317 316 316 316 315 313 311 311 312 312 313 314 316 317 316 315 315 314 313 312 312 311 313 315 315 314 314 315 314 314 314 313 313 314 314 314 313 313 313 312 312 312 312 313 314 313 312 313 314 316 316 315 313 313 315
321 318 317 320 321 320 319 317 316 315 315 315 314 312 311 312 313 313 311 312 315 316 315 315 316 315 313 311 310 310 310 312 315 315 314 313 313 313 313 313 313 313 314 314 314 313 312 312 312 313 312 312 312 312 312 313 313 313 313 312 312 312 313
321 319 317 320 321 320 319 318 316 315 313 313 312 311 312 314 314 314 312 310 310 312 314 316 316 317 315 312 310 311 309 309 311 313 314 313 313 313 311 311 312 313 312 313 314 313 313 313 313 313 313 314 316 315 312 313 313 311 311 312 312 311 311
321 319 318 319 320 319 319 318 317 316 314 313 312 312 313 314 314 315 314 311 308 308 313 316 316 316 316 313 310 310 313 312 310 310 313 314 314 313 311 309 309 311 309 308 310 312 313 312 312 312 313 314 317 320 319 318 316 313 310 310 311 309 308
321 320 318 319 318 318 319 319 318 317 316 316 315 314 313 314 315 315 315 313 310 308 311 316 316 315 315 315 312 310 313 315 313 311 312 314 314 313 312 310 309 308 308 306 307 311 312 312 311 311 312 312 314 320 322 322 319 314 310 310 310 308 306
321 320 319 319 318 318 319 319 319 318 318 317 318 316 315 315 316 316 315 315 313 310 311 313 315 315 314 314 315 312 312 315 316 313 312 313 313 313 313 313 310 309 310 309 308 309 310 310 310 309 310 310 311 313 314 317 318 314 310 309 309 308 306
320 320 320 319 319 319 319 319 319 319 319 318 318 318 316 316 316 316 315 315 315 314 312 311 313 315 314 314 316 314 313 314 315 314 313 313 312 312 313 313 312 310 310 311 309 309 309 309 309 309 309 309 309 310 310 311 314 313 309 309 308 307 307
320 320 321 320 320 320 320 320 319 319 319 319 318 318 318 317 317 317 316 316 316 316 316 313 313 314 313 313 316 316 314 315 313 313 314 314 311 311 312 313 313 310 309 311 310 309 309 309 309 309 310 310 310 310 310 309 311 311 308 308 307 307 308
320 320 321 321 321 321 320 320 319 319 320 319 319 318 318 318 318 318 317 317 317 317 317 316 315 315 313 313 315 316 315 315 314 313 314 315 312 311 311 312 312 310 308 310 310 309 309 309 309 308 309 311 309 309 310 309 309 308 307 307 308 307 306
321 321 321 321 321 320 321 321 320 319 319 319 319 319 319 319 319 318 318 318 318 318 318 318 317 317 315 314 314 315 315 314 314 314 315 315 314 311 311 311 312 311 309 308 307 308 308 308 308 309 308 308 308 307 308 308 308 307 307 307 307 306 306
322 322 321 322 322 321 321 321 320 319 319 319 320 319 319 319 319 319 318 318 319 318 318 318 319 319 318 317 315 314 314 314 314 314 314 315 315 314 312 311 312 312 311 310 307 306 308 308 308 308 308 307 307 307 307 307 306 307 307 307 306 306 305
323 323 323 322 321 321 321 321 321 320 320 320 320 320 320 320 319 319 319 319 319 319 319 319 319 319 319 319 318 315 315 315 314 314 314 315 315 314 313 312 311 311 311 311 309 306 307 308 309 309 308 307 307 306 306 306 305 305 305 305 305 305 304
321 321 322 321 320 320 321 321 321 321 321 321 321 321 321 320 320 320 319 320 319 319 320 320 320 320 319 319 319 317 316 315 315 315 314 315 314 314 314 313 312 311 310 310 310 308 307 308 309 309 308 308 306 305 304 304 304 304 303 302 302 302 302
318 319 320 321 321 322 321 322 321 320 319 320 321 321 321 321 321 321 320 320 320 320 320 319 319 320 320 320 319 319 318 317 316 315 315 315 314 314 314 314 314 312 310 310 310 310 308 308 309 309 308 307 305 302 301 300 300 300 299 299 299 299 299
320 321 322 322 323 323 323 322 320 320 319 320 320 320 321 321 321 321 321 321 320 320 319 319 319 320 320 320 318 318 319 317 316 316 316 315 316 315 314 314 314 313 312 311 311 310 309 308 308 308 307 306 303 301 300 299 297 296 296 296 297 298 298
322 322 322 322 323 323 323 322 321 320 320 321 321 321 320 320 321 321 321 321 321 321 320 319 319 319 320 318 317 317 318 318 317 316 316 316 316 315 314 314 314 313 313 312 311 310 310 308 307 307 306 305 303 302 300 298 297 297 297 298 298 298 299
318 319 319 320 321 323 323 322 321 321 321 321 321 322 321 321 321 321 322 321 321 321 321 320 320 319 319 318 317 318 319 318 318 317 316 316 316 316 315 314 314 313 313 312 311 310 310 308 307 306 305 305 303 302 300 299 300 300 300 300 300 300 300
314 313 314 315 317 319 319 319 320 320 320 321 321 321 321 321 321 321 321 321 321 321 321 320 320 320 319 319 319 319 319 319 319 318 317 317 316 316 315 314 314 313 312 312 311 310 309 308 307 306 305 305 303 302 301 301 301 301 301 300 300 300 299
312 311 311 311 312 313 314 315 315 316 317 317 318 319 319 320 320 320 320 320 320 321 321 321 321 320 320 320 320 320 320 319 319 319 319 317 316 316 315 314 314 313 312 311 311 310 309 307 307 306 305 304 303 301 301 302 301 301 300 300 299 299 299
309 309 309 309 309 310 310 310 311 311 312 313 313 314 315 317 318 319 319 320 320 320 319 319 320 320 321 321 320 320 320 319 319 319 319 317 316 316 315 314 313 312 311 311 310 309 308 306 306 305 304 303 302 302 302 302 301 301 300 300 300 300 299
308 308 309 309 309 309 309 309 309 309 309 309 310 310 311 312 313 314 316 317 318 319 319 318 318 319 320 320 321 321 320 319 319 319 318 317 316 315 314 313 312 311 310 310 309 308 307 306 305 304 304 303 302 302 302 302 302 301 300 299 299 298 298
308 308 309 309 309 309 308 307 308 308 309 309 309 310 310 310 311 311 312 312 313 314 316 318 319 319 318 318 320 320 321 320 319 318 318 317 316 315 314 312 310 309 309 308 307 307 306 305 305 304 303 302 302 302 302 302 301 300 298 297 297 297 297
307 308 309 309 309 309 308 307 307 308 309 309 309 310 311 311 311 311 311 311 311 312 312 315 318 319 318 318 319 320 320 320 319 317 316 316 316 314 312 310 309 309 309 308 306 306 305 305 304 303 302 301 301 301 301 301 300 298 298 297 297 297 297
308 308 309 309 309 308 308 308 307 308 308 308 309 310 310 310 310 310 311 312 312 312 312 313 315 318 319 318 318 319 319 318 317 315 315 315 314 312 311 310 309 308 307 306 305 305 305 304 303 302 301 301 301 300 300 299 298 298 297 297 297 297 297
307 307 308 308 308 308 308 309 309 309 309 309 309 310 310 310 310 310 311 311 311 311 311 311 313 315 317 318 318 318 318 316 314 313 312 311 310 309 308 307 307 305 305 304 304 304 303 303 302 302 301 300 300 299 299 298 298 297 297 297 297 296 296
306 306 306 306 306 307 307 308 308 308 309 309 309 309 309 309 310 310 310 310 311 311 311 311 312 314 316 318 318 317 316 313 311 310 308 307 306 306 306 305 305 305 304 304 304 303 302 302 301 301 300 299 298 298 298 297 297 296 296 295 295 295 294
306 306 306 306 306 307 307 307 308 308 308 308 309 309 309 309 310 310 310 311 311 311 311 312 312 314 315 316 315 315 313 311 309 307 306 305 305 305 305 304 304 304 304 303 302 302 301 300 300 299 298 297 296 296 296 295 294 294 294 293 293 292 292
305 306 306 306 306 306 306 307 308 308 309 309 309 309 309 309 310 310 310 311 311 311 311 311 312 313 313 312 312 311 310 309 307 305 304 303 303 301 301 301 300 300 299 299 299 298 298 298 297 297 296 296 295 294 294 293 293 292 292 292 292 292 292
305 305 305 305 305 305 305 306 306 307 308 309 310 310 310 310 310 310 310 310 310 310 310 310 310 309 309 309 309 308 308 307 305 303 301 299 299 298 297 297 297 297 297 296 296 296 296 296 296 296 295 294 293 293 293 292 292 292 292 292 292 292 292
304 304 305 305 305 305 305 306 306 306 307 309 309 309 309 309 309 309 309 309 309 309 309 308 308 307 306 305 305 305 305 303 302 301 299 297 296 296 296 296 296 296 296 296 296 296 296 296 295 294 294 293 293 293 292 292 292 292 292 291 291 291 291
304 304 305 305 305 306 306 306 307 307 306 307 308 308 308 308 308 308 308 307 307 308 307 306 305 304 303 303 302 303 302 301 299 299 298 297 296 295 295 296 296 296 296 296 296 295 295 294 294 293 293 293 293 292 292 292 292 291 291 291 290 290 290
305 305 305 305 304 304 305 305 305 305 305 305 306 307 307 307 307 307 306 306 306 305 304 303 302 302 302 302 301 301 301 300 298 298 298 297 295 295 295 295 295 295 295 295 294 294 294 293 293 293 293 293 293 292 292 291 291 290 290 290 290 290 290

ECMWFFLT1_925_thetae_042.txt.gz
Theta_e
322 321 320 320 320 320 320 319 319 319 319 318 318 318 319 318 317 317 316 317 319 320 320 320 321 321 322 323 325 326 326 326 326 326 326 325 325 326 327 327 326 325 325 326 326 326 329 330 327 326 325 326 327 327 327 327 327 327 326 326 326 325 326
320 320 320 320 320 320 320 319 319 318 318 318 318 317 317 317 315 314 313 314 317 318 318 319 319 319 320 322 323 324 324 323 322 323 324 324 324 325 326 325 325 324 323 325 324 323 324 326 328 325 321 321 322 323 327 329 328 327 325 325 326 326 327
319 320 320 320 320 320 319 319 318 318 317 317 316 316 316 315 314 313 310 311 314 316 317 317 318 318 319 320 321 322 322 321 318 319 321 322 324 325 325 324 324 324 323 323 322 321 320 319 322 320 315 316 318 319 322 324 322 319 318 320 323 323 324
318 319 320 321 320 320 319 318 318 317 316 315 315 315 314 314 313 313 310 310 312 313 314 315 316 316 317 318 319 319 319 318 318 318 318 319 322 323 322 321 320 319 319 318 316 319 320 319 319 317 313 313 314 313 314 313 311 312 314 317 320 321 323
318 316 317 320 320 320 320 318 317 316 316 315 315 314 314 314 314 313 311 311 311 311 311 312 313 313 315 317 317 317 317 316 316 316 316 316 317 318 316 315 315 314 314 313 312 314 317 317 317 315 312 312 312 311 310 309 308 309 311 313 315 317 319
318 314 313 317 319 320 319 318 317 315 313 314 315 315 314 315 314 313 312 312 313 312 310 309 309 310 313 315 315 315 314 314 314 315 314 314 314 314 314 313 313 313 312 312 311 311 311 312 312 312 311 312 312 311 311 310 309 308 309 310 311 311 312
319 314 311 313 316 319 318 316 316 314 310 309 312 314 314 315 314 313 313 314 314 314 313 310 309 309 310 312 314 314 313 313 313 314 313 313 313 312 313 313 313 313 312 311 311 311 310 310 310 311 311 311 311 311 311 310 310 309 309 309 309 309 309
320 315 312 312 314 316 316 315 316 316 311 309 310 312 313 313 314 313 313 315 315 314 314 314 311 308 306 307 310 311 313 313 312 312 311 310 310 310 311 311 311 312 312 311 311 311 310 310 309 309 310 312 313 310 309 309 310 309 309 308 307 306 306
319 316 313 312 313 314 313 314 316 316 314 311 311 311 311 312 312 312 312 313 314 314 315 315 313 310 306 305 305 306 310 312 312 312 311 309 308 308 307 307 308 310 311 311 311 310 309 309 308 308 308 311 313 312 312 311 310 309 308 307 306 305 304
318 316 314 312 313 313 312 314 316 317 314 313 313 313 311 311 310 310 311 312 312 313 315 316 315 313 310 307 306 305 306 308 309 309 310 310 309 307 306 306 308 310 310 310 310 309 308 308 309 309 308 308 310 314 316 314 310 309 308 306 306 304 303
318 316 314 313 314 314 313 313 315 315 314 313 314 313 310 310 310 310 311 313 312 311 312 315 315 314 312 311 309 308 307 307 306 306 308 309 309 309 307 307 308 309 309 309 309 309 309 309 309 309 309 308 307 310 313 312 310 308 307 306 305 303 302
318 316 316 315 316 315 313 313 313 314 314 313 313 312 310 310 310 311 312 314 315 311 311 313 315 315 314 313 312 311 310 310 308 307 308 309 309 310 308 308 308 308 309 309 309 309 309 309 310 309 309 308 306 306 307 308 309 308 306 305 304 301 300
317 317 318 318 318 317 314 314 314 314 315 315 314 313 312 311 311 312 313 315 316 314 312 312 314 314 314 314 314 313 312 311 310 310 310 309 309 310 309 307 308 308 308 308 308 308 308 308 309 309 307 307 306 306 305 306 308 307 306 304 301 299 298
318 318 319 319 320 318 316 316 317 316 316 316 317 315 314 314 313 314 315 315 316 316 315 313 313 314 314 314 314 314 314 313 312 311 311 310 309 310 310 308 308 308 308 308 308 308 307 308 308 307 307 306 306 305 304 304 305 305 304 302 299 297 297
319 320 320 320 320 319 317 318 319 318 316 317 317 317 316 315 315 315 315 316 316 317 316 315 314 314 315 314 314 314 314 314 314 313 312 312 311 310 310 309 309 309 308 307 307 307 307 307 308 307 307 307 305 303 302 302 302 301 300 299 297 297 298
320 320 320 320 320 319 318 319 319 318 318 317 318 318 317 316 316 316 316 316 317 317 316 316 316 315 315 315 314 313 314 314 314 314 313 314 313 312 311 310 310 311 310 308 307 306 307 307 307 307 307 307 305 303 301 301 301 299 298 298 298 298 299
321 321 321 320 319 319 318 318 319 319 319 319 319 319 318 317 317 317 317 317 317 317 317 317 317 317 316 316 315 314 314 314 314 314 314 314 314 314 313 312 311 311 311 310 309 307 307 307 307 307 307 307 305 303 302 303 304 302 300 300 299 299 300
322 321 321 320 319 319 319 319 319 319 319 320 319 319 319 319 318 318 318 318 317 317 317 317 317 317 317 317 316 316 315 315 314 314 314 314 314 314 314 313 312 312 312 311 310 309 307 307 307 307 307 306 305 303 304 306 306 305 303 302 301 301 300
321 321 320 319 319 319 319 319 320 320 319 319 319 319 319 319 319 318 318 318 318 318 318 318 318 317 317 317 317 317 316 316 316 316 316 315 314 314 314 314 314 313 313 311 310 309 309 307 307 306 306 305 304 304 304 307 307 306 305 304 303 302 301
320 320 319 319 320 320 320 320 319 319 319 319 319 319 318 319 319 318 318 318 319 319 319 318 318 317 317 317 316 316 317 317 317 317 318 317 316 315 315 314 314 314 313 313 312 311 310 309 308 307 306 306 305 305 306 308 308 307 306 306 304 303 302
321 320 319 319 319 320 319 319 319 319 319 318 318 319 318 318 318 318 318 319 319 319 318 318 318 318 318 317 317 317 317 317 318 318 318 318 318 317 316 316 315 315 314 314 313 312 311 310 309 308 307 306 305 304 305 306 306 305 306 306 305 303 302
320 320 319 318 319 319 319 319 319 318 317 317 318 318 318 318 318 318 318 319 318 318 318 318 319 320 319 319 318 318 318 318 318 319 319 318 318 318 317 317 317 317 316 315 314 313 313 312 311 310 309 307 305 304 304 304 303 304 305 305 304 303 302
320 319 319 318 319 319 319 319 319 318 317 318 318 319 319 319 319 319 318 318 319 319 319 320 320 320 320 320 319 319 319 319 319 318 318 318 319 319 318 319 318 318 318 317 315 314 313 312 312 311 310 308 305 304 304 304 303 303 303 303 302 302 301
318 316 316 316 316 317 317 318 319 318 319 319 319 320 319 320 320 320 320 319 320 319 319 319 319 319 319 319 319 319 319 319 319 319 319 319 319 319 319 319 319 318 318 317 316 314 313 312 311 311 310 307 305 305 304 304 303 303 302 302 301 301 300
314 313 312 312 313 313 314 315 316 316 316 316 316 317 317 317 318 318 317 317 316 315 315 315 314 316 317 318 319 319 319 319 320 319 319 319 319 319 319 319 318 318 318 318 316 315 314 312 310 309 308 306 305 305 304 303 304 303 302 301 301 301 300
310 310 310 310 310 310 310 311 310 310 310 311 311 312 312 312 312 312 311 311 311 311 311 311 311 311 312 314 316 317 318 319 319 319 319 319 319 319 319 318 318 318 317 316 315 314 314 312 309 307 306 305 304 304 303 303 303 302 302 301 301 301 299
308 308 308 308 308 308 308 308 308 308 309 309 310 310 310 310 309 309 309 309 309 310 309 309 309 309 309 310 311 313 316 318 319 319 319 319 319 319 318 318 317 316 316 315 314 313 312 310 308 306 304 304 304 304 303 303 302 302 302 301 301 300 299
308 308 307 307 307 307 307 308 307 307 308 308 309 309 309 309 308 308 308 308 308 308 308 308 308 308 308 308 309 310 311 315 317 318 318 319 319 319 318 316 316 315 315 314 313 312 310 308 307 305 304 304 303 303 302 302 302 301 301 300 300 299 299
308 308 308 308 308 307 308 307 307 307 308 308 308 308 308 308 308 308 307 307 307 307 308 308 308 309 309 308 309 309 310 312 315 317 318 318 318 318 316 315 314 314 313 312 311 309 307 306 306 305 304 304 303 302 302 302 301 301 300 300 299 298 297
307 307 307 307 307 307 307 307 307 308 308 308 308 308 308 308 307 307 307 307 307 307 307 308 309 309 308 309 309 309 311 313 316 316 317 316 316 315 314 313 312 311 310 308 307 306 305 305 305 304 303 303 302 302 302 301 301 300 299 298 297 296 295
306 306 306 306 306 306 306 306 306 307 307 308 308 308 308 308 308 308 307 307 308 307 307 308 309 308 308 308 309 309 311 313 315 315 314 313 312 311 311 310 309 308 307 305 304 303 303 303 304 303 303 303 302 301 300 299 298 297 296 296 295 294 293
305 305 305 305 305 305 305 305 305 305 305 306 306 306 307 307 308 308 308 308 308 308 308 308 308 308 308 308 308 308 310 312 313 312 311 309 308 308 308 307 305 305 305 303 303 302 302 302 303 302 302 302 301 299 298 297 296 295 295 294 293 293 293
306 306 306 305 305 305 305 305 305 305 304 305 304 305 305 306 306 307 307 308 308 309 309 308 308 308 308 307 307 308 309 311 311 310 308 307 307 306 305 304 303 302 303 302 302 302 302 301 301 300 300 299 298 297 296 295 294 294 294 293 293 292 292
305 305 305 305 305 305 304 304 304 304 305 304 304 305 305 305 306 306 307 308 309 308 309 308 308 308 308 308 307 307 308 309 309 308 307 305 305 304 303 302 301 300 300 300 300 300 299 299 298 297 297 296 295 295 294 294 293 293 292 292 292 292 291
304 304 305 304 304 304 304 304 304 304 304 304 304 305 305 305 306 306 307 308 308 308 308 308 308 308 308 308 307 307 307 308 308 307 306 304 303 302 301 301 300 299 299 299 299 298 298 297 296 296 295 294 294 293 293 292 292 292 291 291 291 290 290
304 304 304 304 303 304 304 303 304 303 303 304 304 304 305 305 305 305 305 306 307 307 307 307 307 307 307 307 307 307 306 307 306 306 305 303 301 300 299 299 298 298 298 297 297 296 296 295 295 294 293 293 293 292 292 291 291 291 290 290 290 290 290
303 303 304 303 303 304 304 304 304 304 303 304 304 304 305 304 304 304 304 305 305 305 306 305 305 306 306 306 305 305 305 305 304 303 302 301 299 298 298 297 297 296 296 295 295 294 294 293 293 292 292 292 291 291 291 290 290 290 290 289 289 289 289

ECMWFFLT1_925_thetae_045.txt.gz
Theta_e
324 322 321 320 320 320 319 319 319 319 319 319 319 318 318 318 317 316 316 317 320 320 320 321 322 322 323 324 325 325 326 326 327 327 326 326 326 327 327 327 326 325 324 324 324 327 329 329 328 327 324 323 324 326 327 326 325 326 326 326 326 326 326
322 322 320 320 320 319 319 319 319 318 318 318 318 318 317 316 315 314 313 315 317 318 319 319 319 319 320 323 324 324 323 323 323 325 325 325 325 326 326 327 326 325 325 324 323 325 328 329 327 325 325 323 321 320 320 320 322 323 323 323 324 324 325
321 320 320 320 319 319 318 318 318 318 317 317 317 317 316 315 314 312 310 311 314 315 316 317 318 318 319 321 323 321 319 319 319 321 323 325 325 325 325 325 326 325 326 325 324 324 324 325 323 322 324 323 317 315 314 315 317 318 319 321 322 323 323
320 319 319 320 319 319 319 318 318 317 316 316 317 316 315 314 313 310 308 309 311 312 313 315 316 317 318 320 320 318 317 317 317 317 320 323 323 321 321 320 320 321 322 322 323 325 324 323 322 320 321 318 315 313 313 313 313 313 314 315 316 318 320
319 318 318 319 319 319 319 318 317 316 315 315 316 315 314 314 312 310 309 309 310 310 311 312 313 315 317 318 318 317 316 316 316 316 317 318 317 316 315 315 316 316 317 316 318 322 324 322 321 320 318 315 313 313 313 312 312 311 311 311 310 311 313
319 318 316 317 319 319 319 318 317 315 315 315 314 314 314 314 313 311 311 312 311 310 309 309 311 313 315 316 316 315 314 314 315 315 314 314 314 314 314 314 314 314 313 312 313 316 320 321 321 319 317 316 314 312 312 312 312 310 310 309 309 308 309
320 319 315 315 317 319 319 319 316 314 314 315 314 315 315 314 314 313 313 313 313 312 310 308 308 311 313 314 314 313 313 313 314 314 313 313 312 313 313 313 313 313 311 311 311 313 316 318 319 318 316 316 315 313 313 312 311 311 309 308 308 308 307
321 319 315 313 315 317 318 317 315 313 313 313 314 315 315 315 314 314 314 314 314 314 313 311 308 308 311 312 313 312 312 313 312 312 311 311 311 311 312 312 312 311 311 311 312 312 313 315 317 318 316 316 314 314 313 311 310 310 309 307 306 307 307
321 319 316 314 315 315 316 315 314 313 312 312 313 313 313 314 313 313 314 313 314 314 315 314 311 308 308 310 312 312 312 312 311 309 308 307 308 309 309 310 311 311 310 310 310 310 309 311 314 316 317 316 315 314 313 312 311 309 309 307 306 305 305
321 320 317 315 315 315 315 314 313 314 313 312 313 313 312 313 313 313 313 312 313 314 315 316 314 311 310 309 309 311 311 312 311 310 308 306 306 306 307 308 311 311 310 309 309 309 308 308 310 312 314 315 316 314 313 312 312 310 308 307 306 304 303
321 321 318 315 314 314 315 314 313 313 313 313 313 313 312 312 313 314 314 313 313 313 314 315 315 314 313 312 311 310 311 312 312 311 310 308 307 307 308 308 311 311 309 309 309 308 308 308 308 309 310 312 315 315 314 312 311 311 309 306 305 303 301
321 321 318 316 315 314 314 314 314 313 313 313 313 313 313 312 313 315 316 316 314 313 313 314 315 314 314 314 313 313 312 311 312 312 311 310 309 309 309 309 311 310 309 308 308 308 309 308 308 309 308 309 312 313 314 312 310 310 309 306 304 302 300
321 320 319 317 316 316 314 314 315 315 315 313 313 314 313 312 313 314 316 316 316 315 314 313 314 314 314 314 314 315 314 312 313 313 312 311 311 311 310 310 310 309 308 309 308 308 309 308 307 307 308 308 309 310 312 312 310 309 307 305 304 302 300
321 321 319 317 317 317 315 315 316 316 315 315 315 315 314 313 314 314 315 316 316 316 316 315 314 313 314 314 314 315 314 314 314 314 312 312 312 311 311 311 310 309 308 309 309 308 308 308 307 306 306 307 307 309 310 310 310 309 305 303 303 302 300
321 320 319 317 318 318 317 316 316 317 317 316 316 316 316 316 315 315 315 315 316 316 316 317 316 315 315 315 315 315 314 314 314 314 314 314 313 311 310 310 310 309 308 308 308 308 308 308 308 307 307 306 306 306 307 307 307 307 306 303 303 302 300
320 319 318 318 319 319 318 317 316 317 317 317 317 317 317 317 317 317 316 316 316 317 316 317 317 317 317 317 316 316 315 314 314 314 314 315 315 313 311 311 310 310 309 308 307 307 308 308 308 308 306 305 304 305 306 307 308 308 307 305 303 304 302
319 319 318 318 319 319 319 318 317 317 317 318 318 318 318 319 318 318 317 317 317 318 318 317 317 317 317 317 317 317 316 316 316 315 315 315 314 314 313 313 312 311 311 310 308 307 307 307 308 308 306 304 304 305 307 308 309 308 308 306 304 303 303
319 319 319 319 319 319 319 318 318 318 318 319 320 320 319 319 318 318 317 316 317 318 318 318 318 317 318 318 317 317 317 317 317 316 316 316 315 314 314 314 314 312 311 311 311 309 308 307 307 307 306 304 304 306 308 309 308 309 309 309 306 303 302
320 319 319 321 320 320 319 319 318 318 318 319 319 319 319 318 318 318 316 315 316 318 318 318 318 318 318 318 317 317 317 317 317 316 317 317 316 315 314 314 314 314 313 312 312 311 310 308 307 307 307 305 304 306 308 308 308 309 310 309 307 305 303
320 318 320 321 320 319 319 319 318 319 319 319 319 318 318 318 318 317 316 316 317 318 318 318 318 318 318 318 318 317 317 317 316 316 317 318 318 316 315 314 314 314 314 313 313 313 312 309 308 307 307 306 304 304 306 307 307 309 310 308 308 307 305
320 320 320 320 319 319 319 319 319 319 319 319 319 319 318 318 318 318 317 317 317 318 318 319 318 318 318 319 319 319 318 318 318 317 318 318 318 318 317 316 315 315 315 314 313 313 313 311 309 308 307 306 305 303 304 305 306 308 309 309 308 307 306
320 320 320 319 319 319 319 320 320 319 319 319 318 317 317 318 318 318 318 318 318 318 318 318 318 318 319 320 320 320 320 319 319 319 319 319 318 318 317 317 317 317 317 317 315 314 313 312 311 309 308 307 305 304 304 305 306 308 309 310 309 307 307
319 320 319 319 319 319 319 319 319 318 318 318 317 317 317 318 318 318 318 318 318 318 319 319 320 319 320 320 320 320 320 320 320 320 319 319 319 318 317 317 318 318 318 318 316 315 314 314 312 310 309 308 307 305 304 305 306 308 309 309 309 307 307
319 320 319 319 319 319 319 319 319 318 318 317 317 318 319 319 319 319 319 319 319 319 319 318 318 317 318 318 318 319 319 319 320 320 320 320 320 318 318 318 318 318 318 317 316 315 315 315 314 312 309 309 308 306 305 305 305 306 306 307 306 305 305
319 319 319 318 318 319 319 319 318 318 318 318 319 319 320 320 320 319 319 318 317 316 315 313 312 312 312 313 315 316 318 319 319 319 319 319 319 319 319 318 318 318 318 317 316 315 315 315 314 313 311 309 307 305 304 304 304 304 305 305 305 303 303
317 316 316 317 317 317 318 318 318 318 318 318 318 317 317 316 316 314 313 312 311 310 310 309 309 309 309 309 310 311 313 315 318 319 319 319 319 319 318 318 318 317 317 316 315 314 314 314 313 312 310 307 305 303 303 304 304 304 304 304 304 303 303
314 314 314 314 315 315 315 315 314 314 313 313 313 312 311 310 310 309 309 309 308 308 308 308 307 308 308 307 308 308 309 311 314 316 318 318 318 318 318 318 318 316 316 315 315 314 312 312 312 310 307 304 302 303 303 304 303 303 303 303 303 302 301
310 311 311 311 310 310 310 309 310 310 310 310 309 309 308 308 308 308 308 307 306 306 306 307 307 307 307 307 307 307 308 309 310 313 316 317 318 318 318 317 317 315 314 314 314 313 311 310 310 307 303 302 302 302 303 303 302 302 302 302 301 301 300
308 308 308 308 308 308 308 308 308 308 309 309 308 308 308 308 307 307 307 306 306 306 307 307 308 307 307 307 306 307 308 309 310 312 315 316 317 316 316 315 314 313 313 312 312 311 309 308 307 304 302 302 302 302 302 302 302 302 302 301 300 299 298
307 307 307 307 308 307 307 308 308 308 309 308 309 308 308 307 307 307 307 307 307 307 307 308 308 308 307 306 306 306 307 309 310 313 314 314 314 313 312 312 311 311 310 309 309 308 306 305 304 303 302 302 302 302 302 302 301 301 300 300 299 297 296
306 307 307 307 307 307 307 308 308 308 308 308 308 308 308 308 308 308 308 308 308 307 308 308 308 308 308 307 306 305 306 308 311 312 312 311 311 310 310 310 309 309 308 307 306 305 303 303 303 303 302 302 302 302 301 300 300 299 298 297 296 295 294
306 306 307 307 306 306 306 306 306 307 307 307 307 307 308 307 307 307 307 307 307 308 308 308 308 308 307 307 306 305 305 307 310 311 310 309 308 308 308 307 307 306 306 305 305 303 302 302 302 302 302 302 301 299 298 297 296 295 295 294 294 293 293
306 306 306 306 305 305 305 305 306 306 306 306 306 306 305 305 305 305 305 305 306 307 308 308 308 307 307 307 307 306 305 307 309 310 308 307 307 306 305 305 304 303 303 303 303 302 302 301 301 301 300 299 298 296 295 294 294 293 293 293 293 293 293
305 306 305 305 305 305 305 305 305 305 305 305 305 304 304 304 304 304 305 306 307 308 308 308 307 307 307 307 307 306 306 306 308 308 307 306 304 303 302 301 301 301 301 301 301 301 301 300 300 299 298 296 295 294 294 293 293 293 293 293 293 293 293
305 305 305 305 305 305 305 304 304 304 304 304 304 304 304 304 305 305 305 306 306 306 307 306 306 306 306 307 307 307 306 306 306 307 307 305 303 301 300 299 299 299 299 299 299 299 299 298 298 297 296 295 294 294 293 293 292 292 293 293 293 293 293
304 305 305 304 305 305 304 304 304 304 304 304 304 304 304 304 305 305 305 305 305 305 305 305 305 305 306 306 307 307 306 306 306 306 306 304 302 301 300 298 298 297 298 298 298 297 297 296 295 294 294 293 293 292 292 292 292 292 292 292 292 293 293
303 304 304 304 304 304 304 304 304 304 304 304 304 304 304 304 305 305 305 305 304 304 304 304 304 304 305 305 306 306 306 306 305 305 304 303 301 300 298 298 297 296 296 296 295 295 294 294 293 292 292 292 291 291 291 291 291 292 292 292 292 292 292

ECMWFFLT1_925_thetae_048.txt.gz
Theta_e
328 328 327 326 324 323 323 323 323 323 323 323 323 323 322 321 321 321 321 321 321 321 321 322 323 323 323 324 325 326 326 327 328 329 329 329 329 330 330 329 329 329 329 330 331 329 329 329 327 327 327 327 326 326 326 326 327 328 328 328 327 327 327
327 327 326 324 323 323 324 323 322 322 322 322 322 322 320 319 319 319 320 320 320 319 318 319 320 321 323 324 324 324 325 325 326 326 328 329 330 330 329 329 329 329 328 329 330 330 329 327 326 327 327 326 325 324 323 323 324 324 324 324 324 326 327
327 326 324 323 323 323 323 322 322 321 321 321 321 321 319 318 318 318 319 320 320 319 318 319 321 321 323 323 323 324 323 323 324 325 326 327 328 329 329 328 328 328 329 329 329 330 330 329 327 328 328 326 325 324 322 321 320 320 320 321 321 322 324
327 326 324 324 323 323 323 322 322 320 320 321 320 319 318 318 317 318 318 318 319 319 319 319 320 321 321 321 322 322 322 322 323 324 324 325 325 325 325 325 325 326 326 326 328 329 329 329 327 327 326 325 324 323 321 319 318 317 317 318 318 319 320
327 326 324 324 323 323 322 321 320 319 320 320 319 318 319 318 317 318 318 317 317 317 318 318 319 320 320 320 320 320 320 321 321 322 322 323 322 322 322 321 320 321 322 322 324 325 327 327 326 326 323 322 322 321 319 318 317 316 316 316 316 317 318
327 326 325 324 323 322 321 320 318 318 319 319 319 318 319 319 318 318 317 316 315 315 315 316 317 318 318 318 318 318 319 320 320 320 320 321 320 320 319 319 318 318 318 319 320 322 324 325 325 324 322 321 321 320 318 317 316 315 315 315 315 316 316
327 326 324 323 323 321 321 319 318 317 318 319 319 319 318 319 318 318 317 316 316 315 314 315 315 317 317 316 316 318 318 319 318 318 319 319 319 319 318 317 316 316 316 317 317 319 321 322 322 322 321 320 320 319 318 317 316 315 314 314 314 315 315
328 327 324 324 324 322 321 319 317 318 318 318 319 319 319 318 318 319 318 318 318 317 316 315 315 315 316 315 314 316 317 316 316 316 316 317 317 317 317 316 315 315 314 314 314 315 317 320 321 321 321 320 319 319 318 316 315 314 312 312 311 313 313
326 326 325 323 321 320 321 320 319 318 318 319 318 319 319 319 319 319 318 318 319 319 317 316 315 315 316 315 314 315 315 314 314 314 314 314 316 316 316 315 314 314 314 314 313 313 315 317 319 319 319 319 318 317 317 316 315 314 312 311 309 309 310
321 322 321 317 314 314 317 319 318 318 318 318 318 319 319 319 319 319 318 318 319 319 319 317 316 316 316 315 315 315 315 314 314 313 313 313 314 314 315 315 314 313 314 313 313 314 314 315 317 318 318 317 317 317 316 316 315 314 311 310 308 307 307
321 323 321 317 315 314 314 313 313 316 318 317 318 319 319 319 319 319 318 319 319 319 320 319 318 318 317 316 315 315 316 316 315 314 314 314 314 314 314 314 314 313 314 314 314 314 313 313 314 315 316 316 316 317 316 316 316 314 311 309 308 306 306
323 325 322 317 314 314 314 314 313 316 319 318 317 318 319 319 319 319 320 319 319 319 320 319 319 319 319 318 317 316 316 317 316 315 315 315 315 314 314 314 314 313 314 314 314 314 314 313 312 312 312 314 315 316 316 316 316 314 311 309 307 306 305
325 326 323 317 315 315 317 318 317 318 320 319 319 319 319 319 319 320 320 320 320 320 320 320 319 319 319 319 319 318 318 318 317 316 315 314 314 315 314 314 313 313 314 314 313 313 312 312 313 312 311 313 314 315 315 315 315 313 311 309 307 306 306
326 326 323 317 318 320 320 321 320 319 319 320 320 320 320 320 320 320 320 320 320 320 320 320 320 320 320 320 319 319 319 319 318 317 317 316 315 315 314 313 313 313 314 313 312 312 312 312 312 311 311 312 313 313 314 314 313 311 309 308 307 307 307
326 326 324 321 322 323 322 322 322 320 318 318 319 319 320 320 320 321 321 321 321 321 321 321 321 321 321 321 320 320 319 319 319 319 319 318 317 316 315 314 313 313 312 312 312 312 311 311 311 310 310 310 311 312 312 312 311 310 309 309 309 308 308
326 326 325 324 324 323 323 323 322 321 320 320 320 320 319 320 321 321 321 321 321 321 321 322 322 322 322 321 321 321 321 320 320 320 320 319 319 318 317 316 315 314 314 313 313 312 312 311 311 310 309 309 310 310 311 312 312 312 312 311 311 310 310
326 326 326 326 325 324 324 323 322 322 321 321 321 321 321 321 322 322 322 322 321 322 321 322 322 322 322 322 321 321 321 321 321 321 320 320 320 319 319 318 317 316 316 316 315 313 312 312 311 310 310 311 312 313 314 314 314 314 314 313 312 311 310
326 326 326 326 326 325 325 323 323 323 322 322 322 322 323 323 323 322 323 322 322 322 322 322 322 322 323 322 322 322 322 321 322 322 321 321 321 320 320 319 319 318 317 317 316 315 314 313 312 311 311 311 313 314 314 315 315 315 315 314 313 311 311
327 327 326 326 327 326 325 324 324 324 323 322 322 323 323 323 323 323 323 322 322 322 322 322 322 322 322 322 323 323 322 322 322 322 322 321 321 321 321 320 320 319 319 318 318 317 316 315 313 312 311 311 312 314 315 315 315 315 316 315 314 312 312
326 325 324 325 326 326 326 325 325 324 323 323 324 324 324 323 323 323 323 322 322 322 322 322 322 322 322 323 323 323 323 323 322 322 322 321 321 322 322 321 321 320 320 320 319 318 318 316 315 314 313 312 311 311 314 315 315 315 316 315 315 314 313
322 321 323 324 325 325 326 325 324 324 324 324 324 324 324 323 323 323 323 322 322 322 322 322 323 323 323 323 323 323 323 323 323 323 322 322 322 321 321 321 321 321 321 320 319 319 318 317 316 315 314 313 311 311 312 313 313 314 315 315 315 314 313
321 321 324 324 323 324 325 325 325 324 324 325 324 324 324 323 324 324 323 323 323 323 323 323 322 322 322 323 323 323 323 324 323 323 323 323 322 320 320 319 320 321 320 320 319 318 318 317 317 316 315 314 312 311 311 312 312 313 314 314 314 314 313
322 323 323 323 323 324 325 325 324 323 322 323 322 321 323 323 323 323 323 323 323 323 323 322 320 319 320 321 321 322 322 322 323 323 323 323 322 321 320 320 320 319 319 318 318 318 318 317 315 315 315 314 312 311 310 311 311 312 313 314 314 313 313
323 323 323 323 323 324 324 323 322 320 321 322 320 320 321 323 322 322 322 322 323 323 322 320 319 319 319 319 319 320 321 320 321 321 321 321 321 321 321 320 320 319 318 318 318 318 317 316 315 315 314 313 311 310 310 311 311 311 312 312 312 312 312
322 322 323 323 323 323 323 323 322 322 323 322 321 321 322 322 322 322 323 323 322 321 318 315 315 314 315 315 315 317 319 319 319 319 319 318 318 319 319 318 318 319 319 317 317 318 317 316 316 315 315 314 312 311 310 310 310 311 311 311 311 311 310
322 322 322 322 321 321 322 322 322 322 322 321 321 322 322 322 321 321 321 320 319 316 311 309 310 309 309 310 309 312 316 317 318 319 319 318 318 317 317 316 316 317 317 316 316 317 317 317 315 315 315 314 312 310 308 306 306 307 308 309 310 310 309
320 320 320 320 320 321 322 322 321 321 321 320 320 321 321 320 319 318 317 316 316 313 309 307 308 307 307 307 306 308 311 312 314 317 318 318 318 318 317 317 316 315 316 316 316 316 316 316 314 313 312 311 309 308 306 304 303 304 305 307 308 309 307
316 317 317 317 318 319 320 320 319 319 319 319 318 317 317 316 315 315 314 313 313 311 307 306 307 306 306 305 304 307 310 311 314 316 317 318 318 317 317 317 316 316 316 315 314 314 315 315 313 311 310 308 307 306 304 303 303 304 304 305 306 306 305
313 314 314 314 315 315 316 316 316 315 315 315 315 314 314 313 312 312 312 311 311 309 306 306 307 306 305 304 305 309 312 313 315 316 316 317 316 316 317 316 315 315 314 313 312 312 312 313 312 311 310 308 307 305 303 302 303 303 303 303 304 304 303
311 311 311 311 312 313 313 313 312 313 313 312 312 312 312 312 311 311 311 311 312 310 308 307 307 306 305 305 307 311 312 311 313 313 314 315 314 313 314 313 313 314 311 309 309 309 309 311 311 311 310 309 307 305 303 302 302 303 303 303 302 301 300
310 310 310 311 311 312 312 312 311 311 311 311 311 311 311 311 311 311 312 312 311 311 309 307 307 307 305 305 307 311 310 310 311 311 312 312 311 310 311 310 310 310 309 307 307 307 307 309 310 309 309 308 308 307 304 302 302 302 301 300 299 298 298
309 309 309 310 310 310 311 312 311 311 311 311 311 310 310 310 311 311 312 310 309 310 310 308 307 307 306 305 306 309 310 310 310 310 310 311 310 308 308 308 308 307 307 307 306 306 306 307 308 308 308 308 308 307 304 301 300 299 298 298 297 298 298
309 308 309 309 309 309 312 311 310 311 311 310 310 310 309 310 310 310 311 309 309 310 311 310 307 307 307 305 305 306 309 309 309 309 309 309 309 307 305 304 305 305 305 305 304 304 304 305 306 306 306 306 306 304 300 299 298 297 297 297 298 297 298
309 309 309 309 310 310 311 311 310 310 310 309 309 309 309 309 309 309 310 310 310 311 311 310 308 306 306 306 305 305 307 309 308 308 308 308 308 307 305 302 301 302 302 302 302 302 302 303 303 303 302 302 301 299 298 298 297 296 296 297 297 297 298
309 310 309 309 310 309 309 309 309 308 308 308 309 309 308 308 308 308 309 309 310 310 308 307 307 305 305 306 305 305 306 308 307 307 308 307 307 307 305 302 301 300 300 301 301 301 301 301 300 300 299 298 297 296 295 297 297 297 297 297 297 297 297
308 309 310 310 309 309 309 308 308 308 308 308 308 308 308 307 307 308 308 308 309 309 307 305 305 305 304 304 305 305 306 306 306 306 308 307 306 306 304 301 301 300 299 299 299 299 299 298 298 297 297 295 294 293 294 296 297 296 297 297 296 297 297
306 307 308 309 309 308 308 308 308 308 308 308 308 308 308 307 307 308 307 307 308 308 307 306 304 303 303 303 304 305 306 306 306 307 307 307 306 305 303 301 300 299 298 298 297 297 297 296 296 295 294 293 293 293 294 296 296 296 296 296 296 297 297